Wetterdaten: Dienstag, 28.02.2017
Datum Zeit Temp. A. Feuchte A. Luftdruck Regen Wind Richtung Richtung Sonnenschein ET UV Solar Taupunkt Windchill Windben Empfang
28.02.2017 00:00 2,2 C 92 % 1001,2 hPa 0,0 l/m 0,5 km/h (0 Bft) O 88 0 min 0,000 mm 0,0 UV-I 0 W/m 1,0 C 2,2 C 1,6 km/h (1 Bft) 97,87 %
28.02.2017 00:02 2,2 C 91 % 1001,2 hPa 0,0 l/m 0,7 km/h (0 Bft) O 88 0 min 0,000 mm 0,0 UV-I 0 W/m 0,9 C 2,2 C 3,2 km/h (1 Bft) 92,86 %
28.02.2017 00:04 2,1 C 91 % 1001,2 hPa 0,0 l/m 0,9 km/h (0 Bft) O 88 0 min 0,000 mm 0,0 UV-I 0 W/m 0,8 C 2,1 C 1,6 km/h (1 Bft) 97,87 %
28.02.2017 00:06 1,8 C 90 % 1001,2 hPa 0,0 l/m 0,9 km/h (0 Bft) O 88 0 min 0,000 mm 0,0 UV-I 0 W/m 0,3 C 1,8 C 1,6 km/h (1 Bft) 93,62 %
28.02.2017 00:08 1,6 C 90 % 1001,2 hPa 0,0 l/m 2,1 km/h (1 Bft) O 88 0 min 0,000 mm 0,0 UV-I 0 W/m 0,1 C 1,6 C 3,2 km/h (1 Bft) 97,87 %
28.02.2017 00:10 1,4 C 90 % 1001,2 hPa 0,0 l/m 0,9 km/h (0 Bft) O 88 0 min 0,000 mm 0,0 UV-I 0 W/m -0,1 C 1,4 C 1,6 km/h (1 Bft) 95,74 %
28.02.2017 00:12 1,4 C 92 % 1001,0 hPa 0,0 l/m 0,0 km/h (0 Bft) O 88 0 min 0,000 mm 0,0 UV-I 0 W/m 0,2 C 1,4 C 1,6 km/h (1 Bft) 93,75 %
28.02.2017 00:14 1,4 C 92 % 1000,9 hPa 0,0 l/m 0,0 km/h (0 Bft) O 88 0 min 0,000 mm 0,0 UV-I 0 W/m 0,2 C 1,4 C 1,6 km/h (1 Bft) 100,00 %
28.02.2017 00:16 1,3 C 91 % 1000,9 hPa 0,0 l/m 0,0 km/h (0 Bft) O 88 0 min 0,000 mm 0,0 UV-I 0 W/m -0,0 C 1,3 C 0,0 km/h (0 Bft) 93,62 %
28.02.2017 00:18 1,1 C 92 % 1000,8 hPa 0,0 l/m 0,9 km/h (0 Bft) O 88 0 min 0,000 mm 0,0 UV-I 0 W/m -0,1 C 1,1 C 3,2 km/h (1 Bft) 100,00 %
28.02.2017 00:20 1,2 C 92 % 1000,8 hPa 0,0 l/m 3,5 km/h (1 Bft) O 88 0 min 0,000 mm 0,0 UV-I 0 W/m 0,0 C 1,2 C 4,8 km/h (1 Bft) 95,74 %
28.02.2017 00:22 1,2 C 92 % 1000,8 hPa 0,0 l/m 3,2 km/h (1 Bft) O 88 0 min 0,000 mm 0,0 UV-I 0 W/m 0,0 C 1,2 C 4,8 km/h (1 Bft) 97,87 %
28.02.2017 00:24 1,1 C 92 % 1000,8 hPa 0,0 l/m 3,0 km/h (1 Bft) O 88 0 min 0,000 mm 0,0 UV-I 0 W/m -0,1 C 1,1 C 4,8 km/h (1 Bft) 97,87 %
28.02.2017 00:26 1,1 C 93 % 1000,7 hPa 0,0 l/m 2,8 km/h (1 Bft) O 88 0 min 0,000 mm 0,0 UV-I 0 W/m 0,1 C 1,1 C 4,8 km/h (1 Bft) 95,74 %
28.02.2017 00:28 1,1 C 92 % 1000,7 hPa 0,0 l/m 3,4 km/h (1 Bft) O 88 0 min 0,000 mm 0,0 UV-I 0 W/m -0,1 C 1,1 C 4,8 km/h (1 Bft) 97,87 %
28.02.2017 00:30 1,0 C 93 % 1000,7 hPa 0,0 l/m 3,4 km/h (1 Bft) O 88 0 min 0,000 mm 0,0 UV-I 0 W/m -0,0 C 1,0 C 4,8 km/h (1 Bft) 93,62 %
28.02.2017 00:32 1,0 C 93 % 1000,7 hPa 0,0 l/m 2,8 km/h (1 Bft) O 88 0 min 0,000 mm 0,0 UV-I 0 W/m -0,0 C 1,0 C 3,2 km/h (1 Bft) 92,68 %
28.02.2017 00:34 0,9 C 93 % 1000,6 hPa 0,0 l/m 0,9 km/h (0 Bft) O 88 0 min 0,000 mm 0,0 UV-I 0 W/m -0,1 C 0,9 C 1,6 km/h (1 Bft) 93,62 %
28.02.2017 00:36 1,0 C 93 % 1000,6 hPa 0,0 l/m 0,0 km/h (0 Bft) O 88 0 min 0,000 mm 0,0 UV-I 0 W/m -0,0 C 1,0 C 0,0 km/h (0 Bft) 95,74 %
28.02.2017 00:38 1,1 C 93 % 1000,6 hPa 0,0 l/m 0,0 km/h (0 Bft) O 88 0 min 0,000 mm 0,0 UV-I 0 W/m 0,1 C 1,1 C 0,0 km/h (0 Bft) 97,87 %
28.02.2017 00:40 1,1 C 93 % 1000,6 hPa 0,0 l/m 1,0 km/h (0 Bft) O 88 0 min 0,000 mm 0,0 UV-I 0 W/m 0,1 C 1,1 C 3,2 km/h (1 Bft) 95,74 %
28.02.2017 00:42 0,9 C 93 % 1000,6 hPa 0,0 l/m 1,7 km/h (1 Bft) O 88 0 min 0,000 mm 0,0 UV-I 0 W/m -0,1 C 0,9 C 3,2 km/h (1 Bft) 97,87 %
28.02.2017 00:44 0,8 C 93 % 1000,6 hPa 0,0 l/m 2,7 km/h (1 Bft) SO 128 0 min 0,000 mm 0,0 UV-I 0 W/m -0,2 C 0,8 C 4,8 km/h (1 Bft) 95,74 %
28.02.2017 00:46 0,7 C 93 % 1000,5 hPa 0,0 l/m 5,6 km/h (1 Bft) S 182 0 min 0,000 mm 0,0 UV-I 0 W/m -0,3 C 0,7 C 8,0 km/h (2 Bft) 93,62 %
28.02.2017 00:48 0,4 C 93 % 1000,5 hPa 0,0 l/m 5,3 km/h (1 Bft) S 182 0 min 0,000 mm 0,0 UV-I 0 W/m -0,6 C 0,4 C 8,0 km/h (2 Bft) 97,87 %
28.02.2017 00:50 0,4 C 93 % 1000,5 hPa 0,0 l/m 3,9 km/h (1 Bft) S 182 0 min 0,000 mm 0,0 UV-I 0 W/m -0,6 C 0,4 C 6,4 km/h (2 Bft) 91,67 %
28.02.2017 00:52 0,3 C 93 % 1000,4 hPa 0,0 l/m 2,1 km/h (1 Bft) S 182 0 min 0,000 mm 0,0 UV-I 0 W/m -0,7 C 0,3 C 3,2 km/h (1 Bft) 97,87 %
28.02.2017 00:54 0,2 C 93 % 1000,4 hPa 0,0 l/m 2,6 km/h (1 Bft) S 182 0 min 0,000 mm 0,0 UV-I 0 W/m -0,8 C 0,2 C 3,2 km/h (1 Bft) 95,74 %
28.02.2017 00:56 0,2 C 93 % 1000,3 hPa 0,0 l/m 2,4 km/h (1 Bft) S 182 0 min 0,000 mm 0,0 UV-I 0 W/m -0,8 C 0,2 C 3,2 km/h (1 Bft) 98,00 %
28.02.2017 00:58 0,3 C 94 % 1000,3 hPa 0,0 l/m 2,5 km/h (1 Bft) S 182 0 min 0,000 mm 0,0 UV-I 0 W/m -0,5 C 0,3 C 3,2 km/h (1 Bft) 95,74 %
28.02.2017 01:00 0,3 C 94 % 1000,2 hPa 0,0 l/m 0,4 km/h (0 Bft) S 182 0 min 0,000 mm 0,0 UV-I 0 W/m -0,5 C 0,3 C 3,2 km/h (1 Bft) 97,37 %
28.02.2017 01:02 0,4 C 94 % 1000,2 hPa 0,0 l/m 0,4 km/h (0 Bft) S 182 0 min 0,000 mm 0,0 UV-I 0 W/m -0,5 C 0,4 C 1,6 km/h (1 Bft) 96,00 %
28.02.2017 01:04 0,4 C 94 % 1000,2 hPa 0,0 l/m 0,5 km/h (0 Bft) S 182 0 min 0,000 mm 0,0 UV-I 0 W/m -0,5 C 0,4 C 1,6 km/h (1 Bft) 93,62 %
28.02.2017 01:06 0,3 C 94 % 1000,2 hPa 0,0 l/m 0,1 km/h (0 Bft) S 182 0 min 0,000 mm 0,0 UV-I 0 W/m -0,5 C 0,3 C 1,6 km/h (1 Bft) 95,74 %
28.02.2017 01:08 0,2 C 94 % 1000,3 hPa 0,0 l/m 0,0 km/h (0 Bft) S 182 0 min 0,000 mm 0,0 UV-I 0 W/m -0,6 C 0,2 C 1,6 km/h (1 Bft) 95,74 %
28.02.2017 01:10 0,3 C 94 % 1000,2 hPa 0,0 l/m 1,1 km/h (1 Bft) S 182 0 min 0,000 mm 0,0 UV-I 0 W/m -0,5 C 0,3 C 3,2 km/h (1 Bft) 100,00 %
28.02.2017 01:12 0,3 C 94 % 1000,2 hPa 0,0 l/m 1,7 km/h (1 Bft) S 182 0 min 0,000 mm 0,0 UV-I 0 W/m -0,5 C 0,3 C 3,2 km/h (1 Bft) 95,74 %
28.02.2017 01:14 0,4 C 94 % 1000,3 hPa 0,0 l/m 1,0 km/h (0 Bft) S 182 0 min 0,000 mm 0,0 UV-I 0 W/m -0,5 C 0,4 C 3,2 km/h (1 Bft) 95,74 %
28.02.2017 01:16 0,4 C 94 % 1000,3 hPa 0,0 l/m 0,0 km/h (0 Bft) S 182 0 min 0,000 mm 0,0 UV-I 0 W/m -0,5 C 0,4 C 0,0 km/h (0 Bft) 98,00 %
28.02.2017 01:18 0,4 C 94 % 1000,3 hPa 0,0 l/m 1,4 km/h (1 Bft) S 182 0 min 0,000 mm 0,0 UV-I 0 W/m -0,5 C 0,4 C 3,2 km/h (1 Bft) 93,62 %
28.02.2017 01:20 0,4 C 94 % 1000,3 hPa 0,0 l/m 1,1 km/h (1 Bft) S 182 0 min 0,000 mm 0,0 UV-I 0 W/m -0,5 C 0,4 C 3,2 km/h (1 Bft) 97,14 %
28.02.2017 01:22 0,3 C 94 % 1000,3 hPa 0,0 l/m 1,1 km/h (1 Bft) S 182 0 min 0,000 mm 0,0 UV-I 0 W/m -0,5 C 0,3 C 3,2 km/h (1 Bft) 96,23 %
28.02.2017 01:24 0,3 C 94 % 1000,3 hPa 0,0 l/m 0,6 km/h (0 Bft) S 182 0 min 0,000 mm 0,0 UV-I 0 W/m -0,5 C 0,3 C 3,2 km/h (1 Bft) 97,87 %
28.02.2017 01:26 0,4 C 94 % 1000,3 hPa 0,0 l/m 4,1 km/h (1 Bft) S 182 0 min 0,000 mm 0,0 UV-I 0 W/m -0,5 C 0,4 C 4,8 km/h (1 Bft) 93,62 %
28.02.2017 01:28 0,4 C 94 % 1000,3 hPa 0,0 l/m 3,3 km/h (1 Bft) S 182 0 min 0,000 mm 0,0 UV-I 0 W/m -0,5 C 0,4 C 4,8 km/h (1 Bft) 91,49 %
28.02.2017 01:30 0,3 C 94 % 1000,3 hPa 0,0 l/m 3,1 km/h (1 Bft) S 182 0 min 0,000 mm 0,0 UV-I 0 W/m -0,5 C 0,3 C 4,8 km/h (1 Bft) 97,92 %
28.02.2017 01:32 0,2 C 94 % 1000,3 hPa 0,0 l/m 3,5 km/h (1 Bft) S 182 0 min 0,000 mm 0,0 UV-I 0 W/m -0,6 C 0,2 C 4,8 km/h (1 Bft) 90,00 %
28.02.2017 01:34 0,2 C 94 % 1000,4 hPa 0,0 l/m 5,1 km/h (1 Bft) S 182 0 min 0,000 mm 0,0 UV-I 0 W/m -0,6 C 0,2 C 6,4 km/h (2 Bft) 95,74 %
28.02.2017 01:36 0,3 C 95 % 1000,4 hPa 0,0 l/m 5,1 km/h (1 Bft) S 182 0 min 0,000 mm 0,0 UV-I 0 W/m -0,4 C 0,3 C 6,4 km/h (2 Bft) 93,62 %
28.02.2017 01:38 0,3 C 94 % 1000,3 hPa 0,0 l/m 2,8 km/h (1 Bft) S 182 0 min 0,000 mm 0,0 UV-I 0 W/m -0,5 C 0,3 C 6,4 km/h (2 Bft) 93,62 %
28.02.2017 01:40 0,3 C 94 % 1000,2 hPa 0,0 l/m 0,6 km/h (0 Bft) S 182 0 min 0,000 mm 0,0 UV-I 0 W/m -0,5 C 0,3 C 3,2 km/h (1 Bft) 95,74 %
28.02.2017 01:42 0,2 C 94 % 1000,2 hPa 0,0 l/m 0,3 km/h (0 Bft) S 182 0 min 0,000 mm 0,0 UV-I 0 W/m -0,6 C 0,2 C 1,6 km/h (1 Bft) 95,74 %
28.02.2017 01:44 0,3 C 94 % 1000,2 hPa 0,0 l/m 0,3 km/h (0 Bft) S 182 0 min 0,000 mm 0,0 UV-I 0 W/m -0,5 C 0,3 C 1,6 km/h (1 Bft) 100,00 %
28.02.2017 01:46 0,3 C 95 % 1000,2 hPa 0,0 l/m 1,5 km/h (1 Bft) S 182 0 min 0,000 mm 0,0 UV-I 0 W/m -0,4 C 0,3 C 3,2 km/h (1 Bft) 94,74 %
28.02.2017 01:48 0,5 C 95 % 1000,1 hPa 0,0 l/m 2,6 km/h (1 Bft) S 182 0 min 0,000 mm 0,0 UV-I 0 W/m -0,2 C 0,5 C 3,2 km/h (1 Bft) 98,00 %
28.02.2017 01:50 0,5 C 95 % 1000,2 hPa 0,0 l/m 3,1 km/h (1 Bft) S 182 0 min 0,000 mm 0,0 UV-I 0 W/m -0,2 C 0,5 C 4,8 km/h (1 Bft) 100,00 %
28.02.2017 01:52 0,4 C 94 % 1000,2 hPa 0,0 l/m 2,9 km/h (1 Bft) S 182 0 min 0,000 mm 0,0 UV-I 0 W/m -0,5 C 0,4 C 4,8 km/h (1 Bft) 100,00 %
28.02.2017 01:54 0,3 C 94 % 1000,2 hPa 0,0 l/m 0,7 km/h (0 Bft) S 182 0 min 0,000 mm 0,0 UV-I 0 W/m -0,5 C 0,3 C 3,2 km/h (1 Bft) 100,00 %
28.02.2017 01:56 0,2 C 94 % 1000,3 hPa 0,0 l/m 0,0 km/h (0 Bft) S 182 0 min 0,000 mm 0,0 UV-I 0 W/m -0,6 C 0,2 C 0,0 km/h (0 Bft) 100,00 %
28.02.2017 01:58 0,2 C 94 % 1000,3 hPa 0,0 l/m 2,3 km/h (1 Bft) S 182 0 min 0,000 mm 0,0 UV-I 0 W/m -0,6 C 0,2 C 4,8 km/h (1 Bft) 95,74 %
28.02.2017 02:00 0,2 C 94 % 1000,3 hPa 0,0 l/m 3,4 km/h (1 Bft) S 182 0 min 0,000 mm 0,0 UV-I 0 W/m -0,6 C 0,2 C 4,8 km/h (1 Bft) 95,74 %
28.02.2017 02:02 0,2 C 94 % 1000,3 hPa 0,0 l/m 2,9 km/h (1 Bft) S 182 0 min 0,000 mm 0,0 UV-I 0 W/m -0,6 C 0,2 C 4,8 km/h (1 Bft) 100,00 %
28.02.2017 02:04 0,2 C 94 % 1000,2 hPa 0,0 l/m 2,1 km/h (1 Bft) S 182 0 min 0,000 mm 0,0 UV-I 0 W/m -0,6 C 0,2 C 4,8 km/h (1 Bft) 97,87 %
28.02.2017 02:06 0,1 C 94 % 1000,2 hPa 0,0 l/m 5,1 km/h (1 Bft) S 182 0 min 0,000 mm 0,0 UV-I 0 W/m -0,7 C 0,1 C 6,4 km/h (2 Bft) 95,74 %
28.02.2017 02:08 0,1 C 94 % 1000,2 hPa 0,0 l/m 4,0 km/h (1 Bft) S 182 0 min 0,000 mm 0,0 UV-I 0 W/m -0,7 C 0,1 C 6,4 km/h (2 Bft) 95,74 %
28.02.2017 02:10 -0,1 C 94 % 1000,1 hPa 0,0 l/m 1,2 km/h (1 Bft) S 182 0 min 0,000 mm 0,0 UV-I 0 W/m -0,9 C -0,1 C 3,2 km/h (1 Bft) 100,00 %
28.02.2017 02:12 -0,1 C 94 % 1000,2 hPa 0,0 l/m 2,5 km/h (1 Bft) S 182 0 min 0,000 mm 0,0 UV-I 0 W/m -0,9 C -0,1 C 4,8 km/h (1 Bft) 97,87 %
28.02.2017 02:14 0,0 C 95 % 1000,3 hPa 0,0 l/m 4,1 km/h (1 Bft) S 182 0 min 0,000 mm 0,0 UV-I 0 W/m -0,7 C 0,0 C 6,4 km/h (2 Bft) 95,83 %
28.02.2017 02:16 0,2 C 95 % 1000,3 hPa 0,0 l/m 4,1 km/h (1 Bft) S 182 0 min 0,000 mm 0,0 UV-I 0 W/m -0,5 C 0,2 C 4,8 km/h (1 Bft) 97,87 %
28.02.2017 02:18 0,2 C 95 % 1000,2 hPa 0,0 l/m 5,2 km/h (1 Bft) S-SW 207 0 min 0,000 mm 0,0 UV-I 0 W/m -0,5 C 0,2 C 6,4 km/h (2 Bft) 97,87 %
28.02.2017 02:20 0,2 C 95 % 1000,3 hPa 0,0 l/m 5,9 km/h (2 Bft) S-SW 207 0 min 0,000 mm 0,0 UV-I 0 W/m -0,5 C 0,2 C 8,0 km/h (2 Bft) 100,00 %
28.02.2017 02:22 0,3 C 95 % 1000,2 hPa 0,0 l/m 4,1 km/h (1 Bft) S 190 0 min 0,000 mm 0,0 UV-I 0 W/m -0,4 C 0,3 C 8,0 km/h (2 Bft) 97,87 %
28.02.2017 02:24 0,2 C 95 % 1000,1 hPa 0,0 l/m 1,7 km/h (1 Bft) S 190 0 min 0,000 mm 0,0 UV-I 0 W/m -0,5 C 0,2 C 3,2 km/h (1 Bft) 95,74 %
28.02.2017 02:26 0,1 C 94 % 1000,1 hPa 0,0 l/m 0,8 km/h (0 Bft) S 190 0 min 0,000 mm 0,0 UV-I 0 W/m -0,7 C 0,1 C 1,6 km/h (1 Bft) 100,00 %
28.02.2017 02:28 0,1 C 95 % 1000,0 hPa 0,0 l/m 0,5 km/h (0 Bft) S 190 0 min 0,000 mm 0,0 UV-I 0 W/m -0,6 C 0,1 C 1,6 km/h (1 Bft) 94,87 %
28.02.2017 02:30 0,2 C 95 % 1000,0 hPa 0,0 l/m 1,9 km/h (1 Bft) S 190 0 min 0,000 mm 0,0 UV-I 0 W/m -0,5 C 0,2 C 3,2 km/h (1 Bft) 95,74 %
28.02.2017 02:32 0,3 C 95 % 1000,1 hPa 0,0 l/m 2,8 km/h (1 Bft) S 190 0 min 0,000 mm 0,0 UV-I 0 W/m -0,4 C 0,3 C 4,8 km/h (1 Bft) 97,87 %
28.02.2017 02:34 0,3 C 95 % 1000,1 hPa 0,0 l/m 3,4 km/h (1 Bft) S 190 0 min 0,000 mm 0,0 UV-I 0 W/m -0,4 C 0,3 C 4,8 km/h (1 Bft) 100,00 %
28.02.2017 02:36 0,3 C 95 % 1000,1 hPa 0,0 l/m 4,2 km/h (1 Bft) S 190 0 min 0,000 mm 0,0 UV-I 0 W/m -0,4 C 0,3 C 6,4 km/h (2 Bft) 98,00 %
28.02.2017 02:38 0,3 C 95 % 1000,1 hPa 0,0 l/m 5,0 km/h (1 Bft) S 190 0 min 0,000 mm 0,0 UV-I 0 W/m -0,4 C 0,3 C 6,4 km/h (2 Bft) 96,00 %
28.02.2017 02:40 0,2 C 95 % 1000,0 hPa 0,0 l/m 4,0 km/h (1 Bft) S 190 0 min 0,000 mm 0,0 UV-I 0 W/m -0,5 C 0,2 C 4,8 km/h (1 Bft) 100,00 %
28.02.2017 02:42 0,1 C 95 % 999,9 hPa 0,0 l/m 3,8 km/h (1 Bft) S 190 0 min 0,000 mm 0,0 UV-I 0 W/m -0,6 C 0,1 C 6,4 km/h (2 Bft) 97,87 %
28.02.2017 02:44 -0,1 C 95 % 999,9 hPa 0,0 l/m 2,8 km/h (1 Bft) S 190 0 min 0,000 mm 0,0 UV-I 0 W/m -0,8 C -0,1 C 6,4 km/h (2 Bft) 97,87 %
28.02.2017 02:46 -0,2 C 94 % 999,9 hPa 0,0 l/m 3,2 km/h (1 Bft) S 188 0 min 0,000 mm 0,0 UV-I 0 W/m -1,0 C -0,2 C 6,4 km/h (2 Bft) 97,87 %
28.02.2017 02:48 -0,1 C 95 % 999,9 hPa 0,0 l/m 4,8 km/h (1 Bft) S 189 0 min 0,000 mm 0,0 UV-I 0 W/m -0,8 C -0,1 C 6,4 km/h (2 Bft) 97,30 %
28.02.2017 02:50 0,1 C 95 % 999,8 hPa 0,0 l/m 2,3 km/h (1 Bft) S 189 0 min 0,000 mm 0,0 UV-I 0 W/m -0,6 C 0,1 C 3,2 km/h (1 Bft) 98,00 %
28.02.2017 02:52 0,1 C 95 % 999,8 hPa 0,0 l/m 3,7 km/h (1 Bft) S 189 0 min 0,000 mm 0,0 UV-I 0 W/m -0,6 C 0,1 C 6,4 km/h (2 Bft) 95,74 %
28.02.2017 02:54 0,2 C 95 % 999,8 hPa 0,0 l/m 4,2 km/h (1 Bft) S 189 0 min 0,000 mm 0,0 UV-I 0 W/m -0,5 C 0,2 C 6,4 km/h (2 Bft) 93,62 %
28.02.2017 02:56 0,3 C 95 % 999,7 hPa 0,0 l/m 2,0 km/h (1 Bft) S 189 0 min 0,000 mm 0,0 UV-I 0 W/m -0,4 C 0,3 C 4,8 km/h (1 Bft) 93,62 %
28.02.2017 02:58 0,3 C 95 % 999,6 hPa 0,0 l/m 2,6 km/h (1 Bft) S 189 0 min 0,000 mm 0,0 UV-I 0 W/m -0,4 C 0,3 C 4,8 km/h (1 Bft) 91,49 %
28.02.2017 03:00 0,3 C 95 % 999,6 hPa 0,0 l/m 4,1 km/h (1 Bft) S-SW 192 0 min 0,000 mm 0,0 UV-I 0 W/m -0,4 C 0,3 C 6,4 km/h (2 Bft) 89,36 %
28.02.2017 03:02 0,3 C 95 % 999,6 hPa 0,0 l/m 5,3 km/h (1 Bft) SW 215 0 min 0,000 mm 0,0 UV-I 0 W/m -0,4 C 0,3 C 8,0 km/h (2 Bft) 93,62 %
28.02.2017 03:04 0,3 C 95 % 999,5 hPa 0,0 l/m 4,2 km/h (1 Bft) SW 215 0 min 0,000 mm 0,0 UV-I 0 W/m -0,4 C 0,3 C 6,4 km/h (2 Bft) 93,62 %
28.02.2017 03:06 0,4 C 95 % 999,5 hPa 0,0 l/m 3,2 km/h (1 Bft) SW 215 0 min 0,000 mm 0,0 UV-I 0 W/m -0,3 C 0,4 C 4,8 km/h (1 Bft) 91,49 %
28.02.2017 03:08 0,4 C 95 % 999,4 hPa 0,0 l/m 1,7 km/h (1 Bft) SW 215 0 min 0,000 mm 0,0 UV-I 0 W/m -0,3 C 0,4 C 4,8 km/h (1 Bft) 93,62 %
28.02.2017 03:10 0,3 C 95 % 999,3 hPa 0,0 l/m 2,8 km/h (1 Bft) SW 215 0 min 0,000 mm 0,0 UV-I 0 W/m -0,4 C 0,3 C 4,8 km/h (1 Bft) 98,00 %
28.02.2017 03:12 0,3 C 95 % 999,4 hPa 0,0 l/m 0,5 km/h (0 Bft) SW 215 0 min 0,000 mm 0,0 UV-I 0 W/m -0,4 C 0,3 C 1,6 km/h (1 Bft) 95,74 %
28.02.2017 03:14 0,4 C 95 % 999,3 hPa 0,0 l/m 0,7 km/h (0 Bft) S-SW 213 0 min 0,000 mm 0,0 UV-I 0 W/m -0,3 C 0,4 C 3,2 km/h (1 Bft) 95,74 %
28.02.2017 03:16 0,4 C 95 % 999,3 hPa 0,0 l/m 1,2 km/h (1 Bft) S-SW 204 0 min 0,000 mm 0,0 UV-I 0 W/m -0,3 C 0,4 C 3,2 km/h (1 Bft) 97,37 %
28.02.2017 03:18 0,4 C 95 % 999,3 hPa 0,0 l/m 1,9 km/h (1 Bft) S-SW 204 0 min 0,000 mm 0,0 UV-I 0 W/m -0,3 C 0,4 C 4,8 km/h (1 Bft) 95,74 %
28.02.2017 03:20 0,4 C 95 % 999,3 hPa 0,0 l/m 4,0 km/h (1 Bft) S-SW 204 0 min 0,000 mm 0,0 UV-I 0 W/m -0,3 C 0,4 C 6,4 km/h (2 Bft) 97,87 %
28.02.2017 03:22 0,4 C 95 % 999,2 hPa 0,0 l/m 0,9 km/h (0 Bft) S-SW 204 0 min 0,000 mm 0,0 UV-I 0 W/m -0,3 C 0,4 C 3,2 km/h (1 Bft) 97,87 %
28.02.2017 03:24 0,4 C 95 % 999,1 hPa 0,0 l/m 0,7 km/h (0 Bft) S-SW 204 0 min 0,000 mm 0,0 UV-I 0 W/m -0,3 C 0,4 C 1,6 km/h (1 Bft) 97,96 %
28.02.2017 03:26 0,3 C 95 % 999,1 hPa 0,0 l/m 1,7 km/h (1 Bft) S-SW 201 0 min 0,000 mm 0,0 UV-I 0 W/m -0,4 C 0,3 C 3,2 km/h (1 Bft) 94,34 %
28.02.2017 03:28 0,4 C 95 % 999,2 hPa 0,0 l/m 4,1 km/h (1 Bft) S 189 0 min 0,000 mm 0,0 UV-I 0 W/m -0,3 C 0,4 C 6,4 km/h (2 Bft) 95,83 %
28.02.2017 03:30 0,4 C 95 % 999,1 hPa 0,0 l/m 3,0 km/h (1 Bft) S 189 0 min 0,000 mm 0,0 UV-I 0 W/m -0,3 C 0,4 C 6,4 km/h (2 Bft) 100,00 %
28.02.2017 03:32 0,4 C 95 % 999,1 hPa 0,0 l/m 1,5 km/h (1 Bft) S 189 0 min 0,000 mm 0,0 UV-I 0 W/m -0,3 C 0,4 C 3,2 km/h (1 Bft) 98,00 %
28.02.2017 03:34 0,3 C 95 % 999,1 hPa 0,0 l/m 2,0 km/h (1 Bft) S 189 0 min 0,000 mm 0,0 UV-I 0 W/m -0,4 C 0,3 C 3,2 km/h (1 Bft) 100,00 %
28.02.2017 03:36 0,4 C 95 % 999,1 hPa 0,0 l/m 2,5 km/h (1 Bft) S 189 0 min 0,000 mm 0,0 UV-I 0 W/m -0,3 C 0,4 C 4,8 km/h (1 Bft) 95,74 %
28.02.2017 03:38 0,4 C 95 % 999,1 hPa 0,0 l/m 3,0 km/h (1 Bft) S 189 0 min 0,000 mm 0,0 UV-I 0 W/m -0,3 C 0,4 C 4,8 km/h (1 Bft) 95,74 %
28.02.2017 03:40 0,5 C 95 % 999,2 hPa 0,0 l/m 3,1 km/h (1 Bft) S 189 0 min 0,000 mm 0,0 UV-I 0 W/m -0,2 C 0,5 C 4,8 km/h (1 Bft) 100,00 %
28.02.2017 03:42 0,3 C 95 % 999,1 hPa 0,0 l/m 2,8 km/h (1 Bft) S 189 0 min 0,000 mm 0,0 UV-I 0 W/m -0,4 C 0,3 C 3,2 km/h (1 Bft) 97,87 %
28.02.2017 03:44 0,2 C 94 % 999,1 hPa 0,0 l/m 1,6 km/h (1 Bft) S 189 0 min 0,000 mm 0,0 UV-I 0 W/m -0,6 C 0,2 C 3,2 km/h (1 Bft) 95,74 %
28.02.2017 03:46 0,1 C 95 % 999,0 hPa 0,0 l/m 3,5 km/h (1 Bft) S 189 0 min 0,000 mm 0,0 UV-I 0 W/m -0,6 C 0,1 C 4,8 km/h (1 Bft) 100,00 %
28.02.2017 03:48 -0,1 C 95 % 999,1 hPa 0,0 l/m 5,7 km/h (1 Bft) S 189 0 min 0,000 mm 0,0 UV-I 0 W/m -0,8 C -0,1 C 8,0 km/h (2 Bft) 98,00 %
28.02.2017 03:50 -0,2 C 95 % 999,0 hPa 0,0 l/m 4,1 km/h (1 Bft) S 189 0 min 0,000 mm 0,0 UV-I 0 W/m -0,9 C -0,2 C 6,4 km/h (2 Bft) 100,00 %
28.02.2017 03:52 -0,2 C 95 % 998,9 hPa 0,0 l/m 3,9 km/h (1 Bft) S 189 0 min 0,000 mm 0,0 UV-I 0 W/m -0,9 C -0,2 C 4,8 km/h (1 Bft) 97,87 %
28.02.2017 03:54 -0,1 C 95 % 998,9 hPa 0,0 l/m 4,0 km/h (1 Bft) S 189 0 min 0,000 mm 0,0 UV-I 0 W/m -0,8 C -0,1 C 4,8 km/h (1 Bft) 97,87 %
28.02.2017 03:56 -0,1 C 95 % 998,9 hPa 0,0 l/m 3,5 km/h (1 Bft) S 189 0 min 0,000 mm 0,0 UV-I 0 W/m -0,8 C -0,1 C 4,8 km/h (1 Bft) 100,00 %
28.02.2017 03:58 0,0 C 95 % 998,8 hPa 0,0 l/m 1,7 km/h (1 Bft) S 189 0 min 0,000 mm 0,0 UV-I 0 W/m -0,7 C 0,0 C 3,2 km/h (1 Bft) 97,87 %
28.02.2017 04:00 0,0 C 95 % 998,8 hPa 0,0 l/m 1,8 km/h (1 Bft) S 189 0 min 0,000 mm 0,0 UV-I 0 W/m -0,7 C 0,0 C 4,8 km/h (1 Bft) 97,87 %
28.02.2017 04:02 0,1 C 95 % 998,8 hPa 0,0 l/m 3,8 km/h (1 Bft) S 188 0 min 0,000 mm 0,0 UV-I 0 W/m -0,6 C 0,1 C 6,4 km/h (2 Bft) 97,56 %
28.02.2017 04:04 0,1 C 95 % 998,8 hPa 0,0 l/m 2,8 km/h (1 Bft) S 186 0 min 0,000 mm 0,0 UV-I 0 W/m -0,6 C 0,1 C 4,8 km/h (1 Bft) 95,74 %
28.02.2017 04:06 0,3 C 95 % 998,8 hPa 0,0 l/m 1,3 km/h (1 Bft) S 186 0 min 0,000 mm 0,0 UV-I 0 W/m -0,4 C 0,3 C 3,2 km/h (1 Bft) 97,22 %
28.02.2017 04:08 0,4 C 96 % 998,8 hPa 0,0 l/m 2,8 km/h (1 Bft) S 186 0 min 0,000 mm 0,0 UV-I 0 W/m -0,2 C 0,4 C 4,8 km/h (1 Bft) 95,74 %
28.02.2017 04:10 0,5 C 96 % 998,7 hPa 0,0 l/m 2,3 km/h (1 Bft) S 186 0 min 0,000 mm 0,0 UV-I 0 W/m -0,1 C 0,5 C 3,2 km/h (1 Bft) 97,87 %
28.02.2017 04:12 0,4 C 95 % 998,7 hPa 0,0 l/m 1,6 km/h (1 Bft) S 186 0 min 0,000 mm 0,0 UV-I 0 W/m -0,3 C 0,4 C 4,8 km/h (1 Bft) 93,62 %
28.02.2017 04:14 0,5 C 95 % 998,7 hPa 0,0 l/m 2,6 km/h (1 Bft) S 186 0 min 0,000 mm 0,0 UV-I 0 W/m -0,2 C 0,5 C 4,8 km/h (1 Bft) 93,62 %
28.02.2017 04:16 0,5 C 95 % 998,6 hPa 0,0 l/m 2,3 km/h (1 Bft) S 186 0 min 0,000 mm 0,0 UV-I 0 W/m -0,2 C 0,5 C 4,8 km/h (1 Bft) 97,87 %
28.02.2017 04:18 0,5 C 95 % 998,6 hPa 0,0 l/m 1,6 km/h (1 Bft) S 186 0 min 0,000 mm 0,0 UV-I 0 W/m -0,2 C 0,5 C 3,2 km/h (1 Bft) 95,74 %
28.02.2017 04:20 0,5 C 95 % 998,5 hPa 0,0 l/m 1,9 km/h (1 Bft) S 186 0 min 0,000 mm 0,0 UV-I 0 W/m -0,2 C 0,5 C 3,2 km/h (1 Bft) 97,87 %
28.02.2017 04:22 0,6 C 95 % 998,5 hPa 0,0 l/m 2,1 km/h (1 Bft) S 186 0 min 0,000 mm 0,0 UV-I 0 W/m -0,1 C 0,6 C 3,2 km/h (1 Bft) 95,74 %
28.02.2017 04:24 0,6 C 95 % 998,5 hPa 0,0 l/m 2,0 km/h (1 Bft) S 186 0 min 0,000 mm 0,0 UV-I 0 W/m -0,1 C 0,6 C 3,2 km/h (1 Bft) 98,00 %
28.02.2017 04:26 0,6 C 95 % 998,3 hPa 0,0 l/m 1,5 km/h (1 Bft) S 186 0 min 0,000 mm 0,0 UV-I 0 W/m -0,1 C 0,6 C 3,2 km/h (1 Bft) 95,74 %
28.02.2017 04:28 0,7 C 95 % 998,3 hPa 0,0 l/m 0,8 km/h (0 Bft) S 186 0 min 0,000 mm 0,0 UV-I 0 W/m -0,0 C 0,7 C 3,2 km/h (1 Bft) 93,62 %
28.02.2017 04:30 0,7 C 95 % 998,4 hPa 0,0 l/m 1,2 km/h (1 Bft) S 186 0 min 0,000 mm 0,0 UV-I 0 W/m -0,0 C 0,7 C 3,2 km/h (1 Bft) 95,74 %
28.02.2017 04:32 0,7 C 95 % 998,4 hPa 0,0 l/m 2,5 km/h (1 Bft) S 186 0 min 0,000 mm 0,0 UV-I 0 W/m -0,0 C 0,7 C 4,8 km/h (1 Bft) 95,74 %
28.02.2017 04:34 0,8 C 95 % 998,2 hPa 0,0 l/m 1,0 km/h (0 Bft) S 186 0 min 0,000 mm 0,0 UV-I 0 W/m 0,1 C 0,8 C 3,2 km/h (1 Bft) 97,87 %
28.02.2017 04:36 0,8 C 95 % 998,1 hPa 0,0 l/m 1,8 km/h (1 Bft) S 186 0 min 0,000 mm 0,0 UV-I 0 W/m 0,1 C 0,8 C 4,8 km/h (1 Bft) 100,00 %
28.02.2017 04:38 0,8 C 95 % 998,1 hPa 0,0 l/m 1,2 km/h (1 Bft) S 186 0 min 0,000 mm 0,0 UV-I 0 W/m 0,1 C 0,8 C 3,2 km/h (1 Bft) 93,62 %
28.02.2017 04:40 0,8 C 95 % 998,1 hPa 0,0 l/m 1,2 km/h (1 Bft) S 186 0 min 0,000 mm 0,0 UV-I 0 W/m 0,1 C 0,8 C 3,2 km/h (1 Bft) 100,00 %
28.02.2017 04:42 0,8 C 95 % 998,2 hPa 0,0 l/m 0,0 km/h (0 Bft) S 186 0 min 0,000 mm 0,0 UV-I 0 W/m 0,1 C 0,8 C 0,0 km/h (0 Bft) 97,37 %
28.02.2017 04:44 0,8 C 95 % 998,2 hPa 0,0 l/m 1,2 km/h (1 Bft) S 186 0 min 0,000 mm 0,0 UV-I 0 W/m 0,1 C 0,8 C 3,2 km/h (1 Bft) 100,00 %
28.02.2017 04:46 0,8 C 95 % 998,1 hPa 0,0 l/m 1,1 km/h (1 Bft) S 186 0 min 0,000 mm 0,0 UV-I 0 W/m 0,1 C 0,8 C 3,2 km/h (1 Bft) 91,67 %
28.02.2017 04:48 0,7 C 95 % 998,1 hPa 0,0 l/m 0,2 km/h (0 Bft) S 186 0 min 0,000 mm 0,0 UV-I 0 W/m -0,0 C 0,7 C 1,6 km/h (1 Bft) 100,00 %
28.02.2017 04:50 0,6 C 94 % 998,1 hPa 0,0 l/m 3,6 km/h (1 Bft) S 186 0 min 0,000 mm 0,0 UV-I 0 W/m -0,3 C 0,6 C 4,8 km/h (1 Bft) 95,74 %
28.02.2017 04:52 0,4 C 94 % 998,1 hPa 0,0 l/m 1,4 km/h (1 Bft) S 186 0 min 0,000 mm 0,0 UV-I 0 W/m -0,5 C 0,4 C 3,2 km/h (1 Bft) 100,00 %
28.02.2017 04:54 0,2 C 94 % 998,2 hPa 0,0 l/m 0,0 km/h (0 Bft) S 186 0 min 0,000 mm 0,0 UV-I 0 W/m -0,6 C 0,2 C 0,0 km/h (0 Bft) 95,74 %
28.02.2017 04:56 0,2 C 94 % 998,2 hPa 0,0 l/m 0,0 km/h (0 Bft) S 186 0 min 0,000 mm 0,0 UV-I 0 W/m -0,6 C 0,2 C 1,6 km/h (1 Bft) 97,87 %
28.02.2017 04:58 0,2 C 95 % 998,1 hPa 0,0 l/m 1,6 km/h (1 Bft) S 186 0 min 0,000 mm 0,0 UV-I 0 W/m -0,5 C 0,2 C 3,2 km/h (1 Bft) 97,87 %
28.02.2017 05:00 0,2 C 95 % 998,1 hPa 0,0 l/m 1,0 km/h (0 Bft) S 186 0 min 0,000 mm 0,0 UV-I 0 W/m -0,5 C 0,2 C 1,6 km/h (1 Bft) 97,87 %
28.02.2017 05:02 0,1 C 95 % 998,1 hPa 0,0 l/m 0,4 km/h (0 Bft) S 186 0 min 0,000 mm 0,0 UV-I 0 W/m -0,6 C 0,1 C 1,6 km/h (1 Bft) 91,49 %
28.02.2017 05:04 0,1 C 95 % 998,0 hPa 0,0 l/m 0,6 km/h (0 Bft) S 186 0 min 0,000 mm 0,0 UV-I 0 W/m -0,6 C 0,1 C 3,2 km/h (1 Bft) 95,74 %
28.02.2017 05:06 0,1 C 95 % 997,9 hPa 0,0 l/m 3,9 km/h (1 Bft) S 186 0 min 0,000 mm 0,0 UV-I 0 W/m -0,6 C 0,1 C 4,8 km/h (1 Bft) 95,74 %
28.02.2017 05:08 0,1 C 95 % 997,9 hPa 0,0 l/m 1,8 km/h (1 Bft) S 186 0 min 0,000 mm 0,0 UV-I 0 W/m -0,6 C 0,1 C 4,8 km/h (1 Bft) 93,62 %
28.02.2017 05:10 0,1 C 95 % 997,9 hPa 0,0 l/m 0,0 km/h (0 Bft) S 186 0 min 0,000 mm 0,0 UV-I 0 W/m -0,6 C 0,1 C 0,0 km/h (0 Bft) 91,49 %
28.02.2017 05:12 0,1 C 95 % 997,9 hPa 0,0 l/m 0,0 km/h (0 Bft) S 186 0 min 0,000 mm 0,0 UV-I 0 W/m -0,6 C 0,1 C 0,0 km/h (0 Bft) 93,62 %
28.02.2017 05:14 0,1 C 95 % 998,0 hPa 0,0 l/m 0,0 km/h (0 Bft) S 186 0 min 0,000 mm 0,0 UV-I 0 W/m -0,6 C 0,1 C 0,0 km/h (0 Bft) 97,87 %
28.02.2017 05:16 0,1 C 95 % 998,0 hPa 0,0 l/m 0,6 km/h (0 Bft) S 186 0 min 0,000 mm 0,0 UV-I 0 W/m -0,6 C 0,1 C 3,2 km/h (1 Bft) 97,87 %
28.02.2017 05:18 0,1 C 95 % 998,0 hPa 0,0 l/m 0,0 km/h (0 Bft) S 186 0 min 0,000 mm 0,0 UV-I 0 W/m -0,6 C 0,1 C 0,0 km/h (0 Bft) 98,00 %
28.02.2017 05:20 -0,1 C 95 % 997,9 hPa 0,0 l/m 0,0 km/h (0 Bft) S 186 0 min 0,000 mm 0,0 UV-I 0 W/m -0,8 C -0,1 C 0,0 km/h (0 Bft) 97,87 %
28.02.2017 05:22 -0,1 C 95 % 998,0 hPa 0,0 l/m 0,0 km/h (0 Bft) S 186 0 min 0,000 mm 0,0 UV-I 0 W/m -0,8 C -0,1 C 0,0 km/h (0 Bft) 95,74 %
28.02.2017 05:24 -0,1 C 95 % 998,0 hPa 0,0 l/m 0,0 km/h (0 Bft) S 186 0 min 0,000 mm 0,0 UV-I 0 W/m -0,8 C -0,1 C 0,0 km/h (0 Bft) 97,87 %
28.02.2017 05:26 -0,1 C 95 % 998,0 hPa 0,0 l/m 0,8 km/h (0 Bft) S 186 0 min 0,000 mm 0,0 UV-I 0 W/m -0,8 C -0,1 C 1,6 km/h (1 Bft) 93,62 %
28.02.2017 05:28 -0,1 C 95 % 998,0 hPa 0,0 l/m 0,4 km/h (0 Bft) S 186 0 min 0,000 mm 0,0 UV-I 0 W/m -0,8 C -0,1 C 1,6 km/h (1 Bft) 97,87 %
28.02.2017 05:30 -0,2 C 95 % 998,0 hPa 0,0 l/m 0,2 km/h (0 Bft) S 186 0 min 0,000 mm 0,0 UV-I 0 W/m -0,9 C -0,2 C 1,6 km/h (1 Bft) 93,48 %
28.02.2017 05:32 -0,2 C 95 % 998,0 hPa 0,0 l/m 1,4 km/h (1 Bft) S 186 0 min 0,000 mm 0,0 UV-I 0 W/m -0,9 C -0,2 C 3,2 km/h (1 Bft) 95,74 %
28.02.2017 05:34 0,0 C 96 % 997,9 hPa 0,0 l/m 0,0 km/h (0 Bft) S 186 0 min 0,000 mm 0,0 UV-I 0 W/m -0,6 C 0,0 C 0,0 km/h (0 Bft) 95,83 %
28.02.2017 05:36 -0,1 C 95 % 997,9 hPa 0,0 l/m 0,2 km/h (0 Bft) S 186 0 min 0,000 mm 0,0 UV-I 0 W/m -0,8 C -0,1 C 1,6 km/h (1 Bft) 97,87 %
28.02.2017 05:38 -0,1 C 96 % 997,9 hPa 0,0 l/m 0,5 km/h (0 Bft) S 186 0 min 0,000 mm 0,0 UV-I 0 W/m -0,7 C -0,1 C 3,2 km/h (1 Bft) 97,87 %
28.02.2017 05:40 -0,1 C 95 % 997,9 hPa 0,0 l/m 3,0 km/h (1 Bft) S 186 0 min 0,000 mm 0,0 UV-I 0 W/m -0,8 C -0,1 C 3,2 km/h (1 Bft) 97,87 %
28.02.2017 05:42 -0,1 C 95 % 997,8 hPa 0,0 l/m 3,2 km/h (1 Bft) S 186 0 min 0,000 mm 0,0 UV-I 0 W/m -0,8 C -0,1 C 4,8 km/h (1 Bft) 97,87 %
28.02.2017 05:44 -0,2 C 95 % 997,8 hPa 0,0 l/m 2,9 km/h (1 Bft) S 186 0 min 0,000 mm 0,0 UV-I 0 W/m -0,9 C -0,2 C 4,8 km/h (1 Bft) 94,29 %
28.02.2017 05:46 -0,2 C 95 % 997,8 hPa 0,0 l/m 2,9 km/h (1 Bft) S 186 0 min 0,000 mm 0,0 UV-I 0 W/m -0,9 C -0,2 C 3,2 km/h (1 Bft) 96,00 %
28.02.2017 05:48 -0,3 C 95 % 997,7 hPa 0,0 l/m 4,2 km/h (1 Bft) S 186 0 min 0,000 mm 0,0 UV-I 0 W/m -1,0 C -0,3 C 4,8 km/h (1 Bft) 95,74 %
28.02.2017 05:50 -0,4 C 95 % 997,7 hPa 0,0 l/m 3,2 km/h (1 Bft) S 186 0 min 0,000 mm 0,0 UV-I 0 W/m -1,1 C -0,4 C 4,8 km/h (1 Bft) 95,74 %
28.02.2017 05:52 -0,4 C 95 % 997,6 hPa 0,0 l/m 0,7 km/h (0 Bft) S 186 0 min 0,000 mm 0,0 UV-I 0 W/m -1,1 C -0,4 C 3,2 km/h (1 Bft) 95,74 %
28.02.2017 05:54 -0,4 C 95 % 997,6 hPa 0,0 l/m 0,6 km/h (0 Bft) S 186 0 min 0,000 mm 0,0 UV-I 0 W/m -1,1 C -0,4 C 1,6 km/h (1 Bft) 95,74 %
28.02.2017 05:56 -0,4 C 95 % 997,6 hPa 0,0 l/m 0,0 km/h (0 Bft) S 186 0 min 0,000 mm 0,0 UV-I 0 W/m -1,1 C -0,4 C 0,0 km/h (0 Bft) 95,74 %
28.02.2017 05:58 -0,4 C 95 % 997,6 hPa 0,0 l/m 0,0 km/h (0 Bft) S 186 0 min 0,000 mm 0,0 UV-I 0 W/m -1,1 C -0,4 C 0,0 km/h (0 Bft) 95,74 %
28.02.2017 06:00 -0,4 C 96 % 997,5 hPa 0,0 l/m 1,3 km/h (1 Bft) S 186 0 min 0,000 mm 0,0 UV-I 0 W/m -1,0 C -0,4 C 3,2 km/h (1 Bft) 97,87 %
28.02.2017 06:02 -0,4 C 96 % 997,4 hPa 0,0 l/m 4,0 km/h (1 Bft) SO 126 0 min 0,000 mm 0,0 UV-I 0 W/m -1,0 C -0,4 C 6,4 km/h (2 Bft) 93,62 %
28.02.2017 06:04 -0,4 C 95 % 997,3 hPa 0,0 l/m 4,5 km/h (1 Bft) SO 126 0 min 0,000 mm 0,0 UV-I 0 W/m -1,1 C -0,4 C 6,4 km/h (2 Bft) 100,00 %
28.02.2017 06:06 -0,6 C 95 % 997,3 hPa 0,0 l/m 4,8 km/h (1 Bft) O-SO 115 0 min 0,000 mm 0,0 UV-I 0 W/m -1,3 C -0,6 C 6,4 km/h (2 Bft) 97,87 %
28.02.2017 06:08 -0,6 C 95 % 997,3 hPa 0,0 l/m 1,9 km/h (1 Bft) O-SO 113 0 min 0,000 mm 0,0 UV-I 0 W/m -1,3 C -0,6 C 6,4 km/h (2 Bft) 100,00 %
28.02.2017 06:10 -0,6 C 95 % 997,3 hPa 0,0 l/m 2,0 km/h (1 Bft) O-SO 113 0 min 0,000 mm 0,0 UV-I 0 W/m -1,3 C -0,6 C 3,2 km/h (1 Bft) 95,74 %
28.02.2017 06:12 -0,7 C 95 % 997,3 hPa 0,0 l/m 1,2 km/h (1 Bft) O-SO 113 0 min 0,000 mm 0,0 UV-I 0 W/m -1,4 C -0,7 C 3,2 km/h (1 Bft) 100,00 %
28.02.2017 06:14 -0,9 C 95 % 997,3 hPa 0,0 l/m 0,7 km/h (0 Bft) O-SO 113 0 min 0,000 mm 0,0 UV-I 0 W/m -1,6 C -0,9 C 1,6 km/h (1 Bft) 97,87 %
28.02.2017 06:16 -1,1 C 95 % 997,4 hPa 0,0 l/m 2,2 km/h (1 Bft) O-SO 113 0 min 0,000 mm 0,0 UV-I 0 W/m -1,8 C -1,1 C 3,2 km/h (1 Bft) 95,74 %
28.02.2017 06:18 -1,1 C 95 % 997,3 hPa 0,0 l/m 1,6 km/h (1 Bft) O-SO 113 0 min 0,000 mm 0,0 UV-I 0 W/m -1,8 C -1,1 C 3,2 km/h (1 Bft) 97,87 %
28.02.2017 06:20 -1,1 C 96 % 997,3 hPa 0,0 l/m 1,3 km/h (1 Bft) O-SO 113 0 min 0,000 mm 0,0 UV-I 0 W/m -1,7 C -1,1 C 3,2 km/h (1 Bft) 94,00 %
28.02.2017 06:22 -1,0 C 95 % 997,4 hPa 0,0 l/m 1,8 km/h (1 Bft) O-SO 111 0 min 0,000 mm 0,0 UV-I 0 W/m -1,7 C -1,0 C 3,2 km/h (1 Bft) 100,00 %
28.02.2017 06:24 -1,0 C 95 % 997,4 hPa 0,0 l/m 0,5 km/h (0 Bft) O-SO 108 0 min 0,000 mm 0,0 UV-I 0 W/m -1,7 C -1,0 C 3,2 km/h (1 Bft) 100,00 %
28.02.2017 06:26 -1,1 C 96 % 997,4 hPa 0,0 l/m 0,5 km/h (0 Bft) O-SO 108 0 min 0,000 mm 0,0 UV-I 0 W/m -1,7 C -1,1 C 3,2 km/h (1 Bft) 93,62 %
28.02.2017 06:28 -1,1 C 96 % 997,4 hPa 0,0 l/m 2,4 km/h (1 Bft) O-SO 108 0 min 0,000 mm 0,0 UV-I 0 W/m -1,7 C -1,1 C 4,8 km/h (1 Bft) 100,00 %
28.02.2017 06:30 -1,1 C 95 % 997,3 hPa 0,0 l/m 2,8 km/h (1 Bft) O-SO 108 0 min 0,000 mm 0,0 UV-I 0 W/m -1,8 C -1,1 C 3,2 km/h (1 Bft) 94,00 %
28.02.2017 06:32 -1,1 C 96 % 997,5 hPa 0,0 l/m 2,4 km/h (1 Bft) O-SO 108 0 min 0,000 mm 0,0 UV-I 4 W/m -1,7 C -1,1 C 3,2 km/h (1 Bft) 98,00 %
28.02.2017 06:34 -1,0 C 96 % 997,5 hPa 0,0 l/m 1,0 km/h (0 Bft) O-SO 108 0 min 0,000 mm 0,0 UV-I 5 W/m -1,6 C -1,0 C 3,2 km/h (1 Bft) 93,62 %
28.02.2017 06:36 -0,9 C 96 % 997,5 hPa 0,0 l/m 0,0 km/h (0 Bft) O-SO 108 0 min 0,000 mm 0,0 UV-I 5 W/m -1,5 C -0,9 C 0,0 km/h (0 Bft) 100,00 %
28.02.2017 06:38 -0,8 C 96 % 997,5 hPa 0,0 l/m 0,0 km/h (0 Bft) O-SO 108 0 min 0,000 mm 0,0 UV-I 5 W/m -1,4 C -0,8 C 0,0 km/h (0 Bft) 95,74 %
28.02.2017 06:40 -0,9 C 96 % 997,6 hPa 0,0 l/m 0,0 km/h (0 Bft) O-SO 108 0 min 0,000 mm 0,0 UV-I 5 W/m -1,5 C -0,9 C 0,0 km/h (0 Bft) 94,00 %
28.02.2017 06:42 -0,8 C 96 % 997,5 hPa 0,0 l/m 0,0 km/h (0 Bft) O-SO 108 0 min 0,000 mm 0,0 UV-I 5 W/m -1,4 C -0,8 C 0,0 km/h (0 Bft) 93,62 %
28.02.2017 06:44 -0,8 C 96 % 997,6 hPa 0,0 l/m 0,0 km/h (0 Bft) O-SO 108 0 min 0,000 mm 0,0 UV-I 6 W/m -1,4 C -0,8 C 0,0 km/h (0 Bft) 93,62 %
28.02.2017 06:46 -0,9 C 96 % 997,6 hPa 0,0 l/m 0,2 km/h (0 Bft) O-SO 108 0 min 0,000 mm 0,0 UV-I 7 W/m -1,5 C -0,9 C 1,6 km/h (1 Bft) 91,67 %
28.02.2017 06:48 -0,9 C 96 % 997,7 hPa 0,0 l/m 0,1 km/h (0 Bft) O-SO 108 0 min 0,000 mm 0,0 UV-I 7 W/m -1,5 C -0,9 C 1,6 km/h (1 Bft) 97,87 %
28.02.2017 06:50 -1,1 C 96 % 997,7 hPa 0,0 l/m 0,3 km/h (0 Bft) O-SO 107 0 min 0,000 mm 0,0 UV-I 7 W/m -1,7 C -1,1 C 1,6 km/h (1 Bft) 91,67 %
28.02.2017 06:52 -1,2 C 95 % 997,7 hPa 0,0 l/m 0,2 km/h (0 Bft) O-SO 107 0 min 0,000 mm 0,0 UV-I 7 W/m -1,9 C -1,2 C 1,6 km/h (1 Bft) 100,00 %
28.02.2017 06:54 -1,3 C 95 % 997,7 hPa 0,0 l/m 0,2 km/h (0 Bft) O-SO 107 0 min 0,000 mm 0,0 UV-I 8 W/m -2,0 C -1,3 C 1,6 km/h (1 Bft) 97,87 %
28.02.2017 06:56 -1,3 C 96 % 997,8 hPa 0,0 l/m 0,0 km/h (0 Bft) O-SO 107 0 min 0,000 mm 0,0 UV-I 10 W/m -1,9 C -1,3 C 0,0 km/h (0 Bft) 89,36 %
28.02.2017 06:58 -1,2 C 96 % 997,8 hPa 0,0 l/m 0,0 km/h (0 Bft) O-SO 107 2 min 0,000 mm 0,0 UV-I 12 W/m -1,8 C -1,2 C 1,6 km/h (1 Bft) 96,00 %
28.02.2017 07:00 -1,1 C 96 % 997,7 hPa 0,0 l/m 0,6 km/h (0 Bft) O-SO 107 0 min 0,000 mm 0,0 UV-I 13 W/m -1,7 C -1,1 C 3,2 km/h (1 Bft) 97,87 %
28.02.2017 07:02 -0,9 C 96 % 997,8 hPa 0,0 l/m 1,2 km/h (1 Bft) O-SO 107 0 min 0,000 mm 0,0 UV-I 15 W/m -1,5 C -0,9 C 3,2 km/h (1 Bft) 91,49 %
28.02.2017 07:04 -0,9 C 96 % 997,8 hPa 0,0 l/m 0,4 km/h (0 Bft) O-SO 107 0 min 0,000 mm 0,0 UV-I 18 W/m -1,5 C -0,9 C 1,6 km/h (1 Bft) 91,49 %
28.02.2017 07:06 -0,8 C 96 % 997,9 hPa 0,0 l/m 0,0 km/h (0 Bft) O-SO 107 0 min 0,000 mm 0,0 UV-I 20 W/m -1,4 C -0,8 C 1,6 km/h (1 Bft) 97,87 %
28.02.2017 07:08 -0,9 C 96 % 998,0 hPa 0,0 l/m 0,2 km/h (0 Bft) O-SO 107 0 min 0,000 mm 0,0 UV-I 23 W/m -1,5 C -0,9 C 1,6 km/h (1 Bft) 87,23 %
28.02.2017 07:10 -0,9 C 96 % 998,0 hPa 0,0 l/m 0,0 km/h (0 Bft) O-SO 107 0 min 0,000 mm 0,0 UV-I 26 W/m -1,5 C -0,9 C 1,6 km/h (1 Bft) 95,74 %
28.02.2017 07:12 -1,0 C 96 % 997,9 hPa 0,0 l/m 0,2 km/h (0 Bft) O-SO 107 0 min 0,000 mm 0,0 UV-I 28 W/m -1,6 C -1,0 C 1,6 km/h (1 Bft) 89,36 %
28.02.2017 07:14 -1,1 C 96 % 997,9 hPa 0,0 l/m 0,6 km/h (0 Bft) O-SO 107 0 min 0,000 mm 0,0 UV-I 33 W/m -1,7 C -1,1 C 1,6 km/h (1 Bft) 95,74 %
28.02.2017 07:16 -1,1 C 96 % 997,8 hPa 0,0 l/m 1,3 km/h (1 Bft) O-NO 78 2 min 0,000 mm 0,0 UV-I 45 W/m -1,7 C -1,1 C 4,8 km/h (1 Bft) 97,87 %
28.02.2017 07:18 -0,9 C 96 % 997,8 hPa 0,0 l/m 1,4 km/h (1 Bft) O-NO 78 2 min 0,000 mm 0,0 UV-I 55 W/m -1,5 C -0,9 C 4,8 km/h (1 Bft) 89,19 %
28.02.2017 07:20 -0,8 C 96 % 997,8 hPa 0,0 l/m 0,8 km/h (0 Bft) O-NO 78 2 min 0,000 mm 0,0 UV-I 71 W/m -1,4 C -0,8 C 3,2 km/h (1 Bft) 97,87 %
28.02.2017 07:22 -0,7 C 96 % 997,9 hPa 0,0 l/m 0,2 km/h (0 Bft) O-NO 78 2 min 0,000 mm 0,0 UV-I 78 W/m -1,3 C -0,7 C 1,6 km/h (1 Bft) 93,62 %
28.02.2017 07:24 -0,7 C 97 % 998,0 hPa 0,0 l/m 0,2 km/h (0 Bft) O-NO 78 2 min 0,000 mm 0,0 UV-I 77 W/m -1,1 C -0,7 C 1,6 km/h (1 Bft) 97,87 %
28.02.2017 07:26 -0,6 C 97 % 998,0 hPa 0,0 l/m 1,3 km/h (1 Bft) O-NO 69 2 min 0,000 mm 0,0 UV-I 79 W/m -1,0 C -0,6 C 3,2 km/h (1 Bft) 95,83 %
28.02.2017 07:28 -0,7 C 96 % 998,0 hPa 0,0 l/m 0,0 km/h (0 Bft) O-NO 69 2 min 0,000 mm 0,0 UV-I 73 W/m -1,3 C -0,7 C 0,0 km/h (0 Bft) 95,92 %
28.02.2017 07:30 -0,8 C 96 % 998,0 hPa 0,0 l/m 0,0 km/h (0 Bft) O-NO 69 2 min 0,000 mm 0,0 UV-I 71 W/m -1,4 C -0,8 C 0,0 km/h (0 Bft) 89,36 %
28.02.2017 07:32 -0,8 C 96 % 998,0 hPa 0,0 l/m 0,0 km/h (0 Bft) O-NO 69 2 min 0,000 mm 0,0 UV-I 65 W/m -1,4 C -0,8 C 0,0 km/h (0 Bft) 95,74 %
28.02.2017 07:34 -0,8 C 96 % 998,0 hPa 0,0 l/m 0,0 km/h (0 Bft) O-NO 69 0 min 0,000 mm 0,0 UV-I 60 W/m -1,4 C -0,8 C 0,0 km/h (0 Bft) 95,74 %
28.02.2017 07:36 -0,8 C 96 % 998,1 hPa 0,0 l/m 0,0 km/h (0 Bft) O-NO 69 0 min 0,000 mm 0,0 UV-I 65 W/m -1,4 C -0,8 C 0,0 km/h (0 Bft) 95,74 %
28.02.2017 07:38 -0,7 C 96 % 998,0 hPa 0,0 l/m 0,0 km/h (0 Bft) O-NO 69 2 min 0,000 mm 0,0 UV-I 75 W/m -1,3 C -0,7 C 0,0 km/h (0 Bft) 95,74 %
28.02.2017 07:40 -0,6 C 97 % 998,1 hPa 0,0 l/m 0,0 km/h (0 Bft) O-NO 69 2 min 0,000 mm 0,0 UV-I 86 W/m -1,0 C -0,6 C 0,0 km/h (0 Bft) 95,74 %
28.02.2017 07:42 -0,4 C 97 % 998,0 hPa 0,0 l/m 0,0 km/h (0 Bft) O-NO 69 2 min 0,000 mm 0,0 UV-I 84 W/m -0,8 C -0,4 C 0,0 km/h (0 Bft) 98,00 %
28.02.2017 07:44 -0,4 C 97 % 998,1 hPa 0,0 l/m 0,0 km/h (0 Bft) O-NO 69 2 min 0,000 mm 0,0 UV-I 86 W/m -0,8 C -0,4 C 0,0 km/h (0 Bft) 93,62 %
28.02.2017 07:46 -0,3 C 97 % 998,1 hPa 0,0 l/m 0,0 km/h (0 Bft) O-NO 69 2 min 0,000 mm 0,0 UV-I 92 W/m -0,7 C -0,3 C 0,0 km/h (0 Bft) 95,74 %
28.02.2017 07:48 -0,1 C 97 % 998,1 hPa 0,0 l/m 0,0 km/h (0 Bft) O-NO 69 2 min 0,000 mm 0,0 UV-I 101 W/m -0,5 C -0,1 C 0,0 km/h (0 Bft) 93,62 %
28.02.2017 07:50 -0,1 C 97 % 998,1 hPa 0,0 l/m 0,0 km/h (0 Bft) O-NO 69 2 min 0,000 mm 0,0 UV-I 97 W/m -0,5 C -0,1 C 0,0 km/h (0 Bft) 91,49 %
28.02.2017 07:52 -0,1 C 96 % 998,2 hPa 0,0 l/m 0,0 km/h (0 Bft) O-NO 69 2 min 0,000 mm 0,0 UV-I 93 W/m -0,7 C -0,1 C 0,0 km/h (0 Bft) 91,49 %
28.02.2017 07:54 -0,1 C 96 % 998,3 hPa 0,0 l/m 0,0 km/h (0 Bft) O-NO 69 2 min 0,000 mm 0,0 UV-I 97 W/m -0,7 C -0,1 C 0,0 km/h (0 Bft) 93,62 %
28.02.2017 07:56 -0,1 C 96 % 998,3 hPa 0,0 l/m 0,1 km/h (0 Bft) O-NO 69 0 min 0,000 mm 0,0 UV-I 93 W/m -0,7 C -0,1 C 1,6 km/h (1 Bft) 93,62 %
28.02.2017 07:58 0,2 C 97 % 998,3 hPa 0,0 l/m 2,3 km/h (1 Bft) O-NO 69 0 min 0,000 mm 0,0 UV-I 91 W/m -0,2 C 0,2 C 3,2 km/h (1 Bft) 93,62 %
28.02.2017 08:00 0,2 C 96 % 998,3 hPa 0,0 l/m 2,5 km/h (1 Bft) O-NO 69 0 min 0,025 mm 0,0 UV-I 95 W/m -0,4 C 0,2 C 3,2 km/h (1 Bft) 100,00 %
28.02.2017 08:03 0,2 C 96 % 999,0 hPa 0,0 l/m 3,6 km/h (1 Bft) W 269 0 min 0,000 mm 0,0 UV-I 95 W/m -0,4 C 0,2 C 11,3 km/h (2 Bft) 98,59 %
28.02.2017 08:04 0,2 C 96 % 999,0 hPa 0,0 l/m 13,3 km/h (3 Bft) W 266 0 min 0,000 mm 0,0 UV-I 99 W/m -0,4 C -5,7 C 14,5 km/h (3 Bft) 100,00 %
28.02.2017 08:06 0,1 C 96 % 1000,7 hPa 0,0 l/m 18,9 km/h (3 Bft) W-SW 248 0 min 0,000 mm 0,0 UV-I 78 W/m -0,5 C -9,0 C 33,8 km/h (5 Bft) 100,00 %
28.02.2017 08:08 0,2 C 96 % 1000,2 hPa 0,0 l/m 13,1 km/h (3 Bft) NW 306 0 min 0,000 mm 0,0 UV-I 57 W/m -0,4 C -5,5 C 35,4 km/h (5 Bft) 100,00 %
28.02.2017 08:10 0,4 C 96 % 1000,4 hPa 0,2 l/m 11,3 km/h (2 Bft) W-NW 290 0 min 0,000 mm 0,0 UV-I 110 W/m -0,2 C -4,0 C 19,3 km/h (3 Bft) 97,87 %
28.02.2017 08:12 0,6 C 96 % 1000,2 hPa 0,0 l/m 13,6 km/h (3 Bft) W-NW 286 0 min 0,000 mm 0,0 UV-I 85 W/m 0,0 C -5,4 C 22,5 km/h (4 Bft) 93,62 %
28.02.2017 08:14 0,8 C 96 % 1000,7 hPa 0,0 l/m 8,1 km/h (2 Bft) W-NW 283 2 min 0,000 mm 0,0 UV-I 130 W/m 0,2 C -0,9 C 14,5 km/h (3 Bft) 93,62 %
28.02.2017 08:16 0,9 C 97 % 1000,3 hPa 0,0 l/m 2,6 km/h (1 Bft) N-NW 335 2 min 0,000 mm 0,0 UV-I 166 W/m 0,5 C 0,9 C 6,4 km/h (2 Bft) 95,74 %
28.02.2017 08:18 1,1 C 96 % 1000,4 hPa 0,0 l/m 2,7 km/h (1 Bft) W 271 2 min 0,000 mm 0,0 UV-I 165 W/m 0,5 C 1,1 C 6,4 km/h (2 Bft) 100,00 %
28.02.2017 08:20 1,2 C 96 % 1000,4 hPa 0,0 l/m 5,3 km/h (1 Bft) W-SW 251 2 min 0,000 mm 0,0 UV-I 139 W/m 0,6 C 1,2 C 9,7 km/h (2 Bft) 93,62 %
28.02.2017 08:22 1,3 C 96 % 1000,3 hPa 0,0 l/m 3,6 km/h (1 Bft) W 264 2 min 0,000 mm 0,0 UV-I 139 W/m 0,7 C 1,3 C 6,4 km/h (2 Bft) 93,62 %
28.02.2017 08:24 1,5 C 96 % 1000,5 hPa 0,0 l/m 4,6 km/h (1 Bft) W-SW 250 2 min 0,000 mm 0,0 UV-I 185 W/m 0,9 C 1,5 C 8,0 km/h (2 Bft) 95,74 %
28.02.2017 08:26 1,6 C 95 % 1000,6 hPa 0,0 l/m 5,0 km/h (1 Bft) W 276 0 min 0,000 mm 0,0 UV-I 123 W/m 0,9 C 1,6 C 9,7 km/h (2 Bft) 95,74 %
28.02.2017 08:28 1,7 C 95 % 1000,5 hPa 0,0 l/m 3,5 km/h (1 Bft) W 277 0 min 0,000 mm 0,0 UV-I 124 W/m 1,0 C 1,7 C 4,8 km/h (1 Bft) 95,74 %
28.02.2017 08:30 1,7 C 95 % 1000,5 hPa 0,0 l/m 4,0 km/h (1 Bft) W 259 0 min 0,000 mm 0,0 UV-I 124 W/m 1,0 C 1,7 C 6,4 km/h (2 Bft) 96,00 %
28.02.2017 08:32 1,8 C 94 % 1000,7 hPa 0,0 l/m 5,4 km/h (1 Bft) SW 229 0 min 0,000 mm 0,0 UV-I 106 W/m 0,9 C 1,8 C 8,0 km/h (2 Bft) 93,62 %
28.02.2017 08:34 1,8 C 94 % 1000,9 hPa 0,0 l/m 7,4 km/h (2 Bft) SW 231 0 min 0,000 mm 0,0 UV-I 111 W/m 0,9 C 0,8 C 9,7 km/h (2 Bft) 93,62 %
28.02.2017 08:36 1,8 C 94 % 1001,1 hPa 0,0 l/m 9,9 km/h (2 Bft) SW 230 0 min 0,000 mm 0,0 UV-I 109 W/m 0,9 C -1,4 C 16,1 km/h (3 Bft) 95,74 %
28.02.2017 08:38 1,8 C 94 % 1001,3 hPa 0,0 l/m 11,2 km/h (2 Bft) S-SW 212 0 min 0,000 mm 0,0 UV-I 106 W/m 0,9 C -2,4 C 16,1 km/h (3 Bft) 94,74 %
28.02.2017 08:40 1,8 C 93 % 1001,5 hPa 0,0 l/m 13,1 km/h (3 Bft) W-SW 243 0 min 0,000 mm 0,0 UV-I 112 W/m 0,8 C -3,7 C 17,7 km/h (3 Bft) 91,49 %
28.02.2017 08:42 1,8 C 93 % 1001,6 hPa 0,0 l/m 17,3 km/h (3 Bft) W-SW 257 0 min 0,000 mm 0,0 UV-I 129 W/m 0,8 C -6,0 C 22,5 km/h (4 Bft) 95,74 %
28.02.2017 08:44 2,0 C 94 % 1001,6 hPa 0,0 l/m 21,9 km/h (4 Bft) W-SW 258 0 min 0,000 mm 0,0 UV-I 111 W/m 1,1 C -7,8 C 27,4 km/h (4 Bft) 93,62 %
28.02.2017 08:46 2,3 C 93 % 1001,7 hPa 0,0 l/m 19,6 km/h (3 Bft) W 261 0 min 0,000 mm 0,0 UV-I 126 W/m 1,3 C -6,5 C 29,0 km/h (5 Bft) 91,67 %
28.02.2017 08:48 2,4 C 92 % 1001,8 hPa 0,0 l/m 21,5 km/h (4 Bft) W-SW 254 0 min 0,000 mm 0,0 UV-I 132 W/m 1,2 C -7,2 C 27,4 km/h (4 Bft) 97,87 %
28.02.2017 08:50 2,7 C 92 % 1001,9 hPa 0,0 l/m 21,0 km/h (4 Bft) W-SW 240 0 min 0,000 mm 0,0 UV-I 127 W/m 1,5 C -6,6 C 30,6 km/h (5 Bft) 93,62 %
28.02.2017 08:52 2,9 C 90 % 1002,0 hPa 0,0 l/m 23,0 km/h (4 Bft) SW 236 0 min 0,000 mm 0,0 UV-I 138 W/m 1,4 C -7,1 C 30,6 km/h (5 Bft) 89,36 %
28.02.2017 08:54 3,2 C 90 % 1002,1 hPa 0,0 l/m 24,7 km/h (4 Bft) W-SW 239 0 min 0,000 mm 0,0 UV-I 137 W/m 1,7 C -7,3 C 38,6 km/h (5 Bft) 97,87 %
28.02.2017 08:56 3,4 C 89 % 1002,1 hPa 0,0 l/m 23,4 km/h (4 Bft) W 267 0 min 0,000 mm 0,0 UV-I 144 W/m 1,8 C -6,6 C 32,2 km/h (5 Bft) 93,62 %
28.02.2017 08:58 3,7 C 88 % 1002,3 hPa 0,0 l/m 26,1 km/h (4 Bft) SW 218 0 min 0,000 mm 0,0 UV-I 150 W/m 1,9 C -7,1 C 40,2 km/h (6 Bft) 91,49 %
28.02.2017 09:00 3,9 C 87 % 1002,4 hPa 0,0 l/m 19,5 km/h (3 Bft) W-SW 238 0 min 0,051 mm 0,0 UV-I 145 W/m 1,9 C -4,4 C 32,2 km/h (5 Bft) 95,74 %
28.02.2017 09:02 4,1 C 86 % 1002,6 hPa 0,0 l/m 25,0 km/h (4 Bft) W-SW 246 0 min 0,000 mm 0,0 UV-I 124 W/m 2,0 C -6,2 C 45,1 km/h (6 Bft) 93,62 %
28.02.2017 09:04 4,2 C 86 % 1002,7 hPa 0,0 l/m 27,4 km/h (4 Bft) W-SW 248 0 min 0,000 mm 0,0 UV-I 121 W/m 2,1 C -6,8 C 45,1 km/h (6 Bft) 93,62 %
28.02.2017 09:06 4,3 C 85 % 1002,7 hPa 0,0 l/m 27,2 km/h (4 Bft) SW 231 0 min 0,000 mm 0,0 UV-I 120 W/m 2,0 C -6,6 C 38,6 km/h (5 Bft) 96,00 %
28.02.2017 09:08 4,4 C 85 % 1002,8 hPa 0,0 l/m 27,2 km/h (4 Bft) W 260 0 min 0,000 mm 0,0 UV-I 122 W/m 2,1 C -6,4 C 48,3 km/h (6 Bft) 96,00 %
28.02.2017 09:10 4,5 C 85 % 1002,7 hPa 0,0 l/m 23,3 km/h (4 Bft) W-SW 248 0 min 0,000 mm 0,0 UV-I 115 W/m 2,2 C -5,1 C 33,8 km/h (5 Bft) 95,74 %
28.02.2017 09:12 4,6 C 85 % 1002,6 hPa 0,0 l/m 27,1 km/h (4 Bft) W-SW 240 0 min 0,000 mm 0,0 UV-I 129 W/m 2,3 C -6,1 C 40,2 km/h (6 Bft) 91,43 %
28.02.2017 09:14 4,7 C 84 % 1002,8 hPa 0,0 l/m 18,7 km/h (3 Bft) W 269 0 min 0,000 mm 0,0 UV-I 130 W/m 2,2 C -3,0 C 32,2 km/h (5 Bft) 93,62 %
28.02.2017 09:16 4,8 C 84 % 1002,9 hPa 0,0 l/m 25,7 km/h (4 Bft) W-SW 239 0 min 0,000 mm 0,0 UV-I 124 W/m 2,3 C -5,4 C 53,1 km/h (7 Bft) 89,36 %
28.02.2017 09:18 4,8 C 84 % 1003,0 hPa 0,0 l/m 21,7 km/h (4 Bft) W-NW 285 0 min 0,000 mm 0,0 UV-I 111 W/m 2,3 C -4,1 C 30,6 km/h (5 Bft) 96,00 %
28.02.2017 09:20 4,9 C 84 % 1003,2 hPa 0,0 l/m 22,3 km/h (4 Bft) W-SW 245 0 min 0,000 mm 0,0 UV-I 106 W/m 2,4 C -4,2 C 38,6 km/h (5 Bft) 97,87 %
28.02.2017 09:22 4,9 C 83 % 1003,4 hPa 0,0 l/m 21,7 km/h (4 Bft) W-SW 256 0 min 0,000 mm 0,0 UV-I 96 W/m 2,3 C -4,0 C 30,6 km/h (5 Bft) 93,62 %
28.02.2017 09:24 4,9 C 83 % 1003,5 hPa 0,0 l/m 21,9 km/h (4 Bft) W-SW 254 0 min 0,000 mm 0,0 UV-I 110 W/m 2,3 C -4,0 C 32,2 km/h (5 Bft) 97,87 %
28.02.2017 09:26 4,9 C 83 % 1003,7 hPa 0,0 l/m 25,2 km/h (4 Bft) W-SW 245 0 min 0,000 mm 0,0 UV-I 100 W/m 2,3 C -5,1 C 32,2 km/h (5 Bft) 93,62 %
28.02.2017 09:28 5,0 C 83 % 1003,9 hPa 0,0 l/m 20,2 km/h (4 Bft) W-SW 240 0 min 0,000 mm 0,0 UV-I 87 W/m 2,4 C -3,3 C 30,6 km/h (5 Bft) 93,75 %
28.02.2017 09:30 5,0 C 83 % 1003,8 hPa 0,0 l/m 19,8 km/h (3 Bft) W-SW 249 0 min 0,000 mm 0,0 UV-I 93 W/m 2,4 C -3,1 C 27,4 km/h (4 Bft) 92,00 %
28.02.2017 09:32 5,1 C 83 % 1003,8 hPa 0,0 l/m 21,2 km/h (4 Bft) W-SW 255 0 min 0,000 mm 0,0 UV-I 98 W/m 2,5 C -3,5 C 32,2 km/h (5 Bft) 97,87 %
28.02.2017 09:34 5,1 C 83 % 1004,0 hPa 0,0 l/m 22,1 km/h (4 Bft) SW 229 0 min 0,000 mm 0,0 UV-I 110 W/m 2,5 C -3,8 C 29,0 km/h (5 Bft) 98,00 %
28.02.2017 09:36 5,1 C 83 % 1004,1 hPa 0,0 l/m 19,9 km/h (4 Bft) SW 224 0 min 0,000 mm 0,0 UV-I 103 W/m 2,5 C -3,0 C 30,6 km/h (5 Bft) 95,74 %
28.02.2017 09:38 5,2 C 83 % 1004,0 hPa 0,0 l/m 21,7 km/h (4 Bft) W 263 0 min 0,000 mm 0,0 UV-I 105 W/m 2,6 C -3,6 C 38,6 km/h (5 Bft) 91,43 %
28.02.2017 09:40 5,2 C 83 % 1003,9 hPa 0,0 l/m 21,4 km/h (4 Bft) W-SW 253 0 min 0,000 mm 0,0 UV-I 128 W/m 2,6 C -3,4 C 29,0 km/h (5 Bft) 98,00 %
28.02.2017 09:42 5,2 C 83 % 1003,9 hPa 0,0 l/m 23,5 km/h (4 Bft) W-NW 291 0 min 0,000 mm 0,0 UV-I 126 W/m 2,6 C -4,2 C 33,8 km/h (5 Bft) 93,62 %
28.02.2017 09:44 5,3 C 83 % 1003,9 hPa 0,0 l/m 22,8 km/h (4 Bft) W 269 0 min 0,000 mm 0,0 UV-I 128 W/m 2,7 C -3,8 C 33,8 km/h (5 Bft) 93,62 %
28.02.2017 09:46 5,3 C 82 % 1003,9 hPa 0,0 l/m 20,9 km/h (4 Bft) W-SW 249 0 min 0,000 mm 0,4 UV-I 148 W/m 2,5 C -3,1 C 30,6 km/h (5 Bft) 98,00 %
28.02.2017 09:48 5,4 C 82 % 1003,9 hPa 0,0 l/m 21,3 km/h (4 Bft) W-SW 248 0 min 0,000 mm 0,3 UV-I 148 W/m 2,6 C -3,1 C 29,0 km/h (5 Bft) 89,36 %
28.02.2017 09:50 5,4 C 82 % 1003,7 hPa 0,0 l/m 21,1 km/h (4 Bft) W-SW 256 0 min 0,000 mm 0,1 UV-I 116 W/m 2,6 C -3,1 C 27,4 km/h (4 Bft) 93,62 %
28.02.2017 09:52 5,4 C 82 % 1003,8 hPa 0,0 l/m 22,1 km/h (4 Bft) W 273 0 min 0,000 mm 0,5 UV-I 118 W/m 2,6 C -3,4 C 40,2 km/h (6 Bft) 95,74 %
28.02.2017 09:54 5,5 C 82 % 1003,9 hPa 0,0 l/m 16,0 km/h (3 Bft) W 270 0 min 0,000 mm 0,0 UV-I 117 W/m 2,7 C -0,8 C 20,9 km/h (4 Bft) 93,62 %
28.02.2017 09:56 5,5 C 81 % 1004,0 hPa 0,0 l/m 21,3 km/h (4 Bft) SW 236 0 min 0,000 mm 0,0 UV-I 107 W/m 2,5 C -3,0 C 33,8 km/h (5 Bft) 95,74 %
28.02.2017 09:58 5,5 C 81 % 1004,2 hPa 0,0 l/m 19,7 km/h (3 Bft) SW 227 0 min 0,000 mm 0,0 UV-I 76 W/m 2,5 C -2,4 C 29,0 km/h (5 Bft) 93,62 %
28.02.2017 10:00 5,5 C 81 % 1004,2 hPa 0,0 l/m 19,6 km/h (3 Bft) SW 234 0 min 0,076 mm 0,0 UV-I 96 W/m 2,5 C -2,4 C 29,0 km/h (5 Bft) 96,00 %
28.02.2017 10:02 5,6 C 80 % 1004,3 hPa 0,0 l/m 16,8 km/h (3 Bft) SW 223 0 min 0,000 mm 0,0 UV-I 91 W/m 2,4 C -1,1 C 29,0 km/h (5 Bft) 93,62 %
28.02.2017 10:04 5,6 C 80 % 1004,3 hPa 0,0 l/m 18,6 km/h (3 Bft) W-SW 256 0 min 0,000 mm 0,0 UV-I 83 W/m 2,4 C -1,8 C 27,4 km/h (4 Bft) 97,37 %
28.02.2017 10:06 5,6 C 81 % 1004,5 hPa 0,0 l/m 16,7 km/h (3 Bft) W 259 0 min 0,000 mm 0,0 UV-I 76 W/m 2,6 C -1,0 C 24,1 km/h (4 Bft) 100,00 %
28.02.2017 10:08 5,6 C 80 % 1004,5 hPa 0,0 l/m 15,1 km/h (3 Bft) W-SW 250 0 min 0,000 mm 0,0 UV-I 75 W/m 2,4 C -0,2 C 20,9 km/h (4 Bft) 100,00 %
28.02.2017 10:10 5,6 C 80 % 1004,6 hPa 0,0 l/m 21,4 km/h (4 Bft) W-SW 250 0 min 0,000 mm 0,0 UV-I 76 W/m 2,4 C -2,9 C 38,6 km/h (5 Bft) 97,87 %
28.02.2017 10:12 5,6 C 80 % 1004,7 hPa 0,0 l/m 19,6 km/h (3 Bft) W-SW 241 0 min 0,000 mm 0,0 UV-I 69 W/m 2,4 C -2,2 C 30,6 km/h (5 Bft) 98,00 %
28.02.2017 10:14 5,6 C 80 % 1004,7 hPa 0,0 l/m 18,8 km/h (3 Bft) SW 232 0 min 0,000 mm 0,0 UV-I 57 W/m 2,4 C -1,9 C 29,0 km/h (5 Bft) 100,00 %
28.02.2017 10:16 5,6 C 80 % 1004,6 hPa 0,0 l/m 15,4 km/h (3 Bft) SW 231 0 min 0,000 mm 0,0 UV-I 57 W/m 2,4 C -0,4 C 22,5 km/h (4 Bft) 97,87 %
28.02.2017 10:18 5,6 C 80 % 1004,6 hPa 0,0 l/m 14,2 km/h (3 Bft) SW 229 0 min 0,000 mm 0,0 UV-I 65 W/m 2,4 C 0,2 C 22,5 km/h (4 Bft) 97,87 %
28.02.2017 10:20 5,6 C 80 % 1004,5 hPa 0,0 l/m 17,4 km/h (3 Bft) W-SW 254 0 min 0,000 mm 0,0 UV-I 69 W/m 2,4 C -1,3 C 24,1 km/h (4 Bft) 97,37 %
28.02.2017 10:22 5,6 C 80 % 1004,5 hPa 0,0 l/m 18,3 km/h (3 Bft) W 265 0 min 0,000 mm 0,0 UV-I 75 W/m 2,4 C -1,7 C 24,1 km/h (4 Bft) 93,62 %
28.02.2017 10:24 5,6 C 80 % 1004,5 hPa 0,0 l/m 16,8 km/h (3 Bft) W-SW 249 0 min 0,000 mm 0,0 UV-I 77 W/m 2,4 C -1,1 C 25,7 km/h (4 Bft) 97,87 %
28.02.2017 10:26 5,6 C 80 % 1004,4 hPa 0,0 l/m 14,7 km/h (3 Bft) W-SW 252 0 min 0,000 mm 0,0 UV-I 74 W/m 2,4 C -0,0 C 20,9 km/h (4 Bft) 96,00 %
28.02.2017 10:28 5,6 C 80 % 1004,4 hPa 0,0 l/m 12,3 km/h (3 Bft) W-SW 237 0 min 0,000 mm 0,0 UV-I 84 W/m 2,4 C 1,3 C 17,7 km/h (3 Bft) 97,87 %
28.02.2017 10:30 5,6 C 80 % 1004,4 hPa 0,0 l/m 14,5 km/h (3 Bft) S-SW 205 0 min 0,000 mm 0,0 UV-I 99 W/m 2,4 C 0,1 C 20,9 km/h (4 Bft) 96,00 %
28.02.2017 10:32 5,7 C 80 % 1004,4 hPa 0,0 l/m 16,5 km/h (3 Bft) W-SW 242 0 min 0,000 mm 0,0 UV-I 108 W/m 2,5 C -0,8 C 24,1 km/h (4 Bft) 95,74 %
28.02.2017 10:34 5,7 C 80 % 1004,3 hPa 0,0 l/m 15,3 km/h (3 Bft) W-SW 246 0 min 0,000 mm 0,0 UV-I 106 W/m 2,5 C -0,2 C 20,9 km/h (4 Bft) 97,37 %
28.02.2017 10:36 5,7 C 80 % 1004,3 hPa 0,0 l/m 10,7 km/h (2 Bft) W 267 0 min 0,000 mm 0,0 UV-I 110 W/m 2,5 C 2,4 C 16,1 km/h (3 Bft) 91,49 %
28.02.2017 10:38 5,8 C 80 % 1004,3 hPa 0,0 l/m 11,8 km/h (2 Bft) W-NW 289 0 min 0,000 mm 0,0 UV-I 105 W/m 2,6 C 1,8 C 16,1 km/h (3 Bft) 100,00 %
28.02.2017 10:40 5,8 C 80 % 1004,3 hPa 0,0 l/m 6,4 km/h (2 Bft) W-SW 252 0 min 0,000 mm 0,0 UV-I 103 W/m 2,6 C 5,8 C 11,3 km/h (2 Bft) 91,49 %
28.02.2017 10:42 5,8 C 80 % 1004,3 hPa 0,0 l/m 12,1 km/h (2 Bft) SW 236 0 min 0,000 mm 0,0 UV-I 89 W/m 2,6 C 1,6 C 22,5 km/h (4 Bft) 95,74 %
28.02.2017 10:44 5,8 C 80 % 1004,3 hPa 0,0 l/m 10,3 km/h (2 Bft) W 262 0 min 0,000 mm 0,0 UV-I 89 W/m 2,6 C 2,8 C 17,7 km/h (3 Bft) 100,00 %
28.02.2017 10:46 5,8 C 80 % 1004,3 hPa 0,0 l/m 11,3 km/h (2 Bft) W 260 0 min 0,000 mm 0,0 UV-I 88 W/m 2,6 C 2,1 C 19,3 km/h (3 Bft) 100,00 %
28.02.2017 10:48 5,8 C 79 % 1004,3 hPa 0,0 l/m 10,3 km/h (2 Bft) W-SW 242 0 min 0,000 mm 0,0 UV-I 99 W/m 2,4 C 2,8 C 17,7 km/h (3 Bft) 97,87 %
28.02.2017 10:50 5,8 C 79 % 1004,3 hPa 0,0 l/m 11,6 km/h (2 Bft) W-SW 257 0 min 0,000 mm 0,0 UV-I 115 W/m 2,4 C 1,9 C 20,9 km/h (4 Bft) 97,87 %
28.02.2017 10:52 5,8 C 79 % 1004,2 hPa 0,0 l/m 9,7 km/h (2 Bft) W-SW 252 0 min 0,000 mm 0,0 UV-I 109 W/m 2,4 C 3,2 C 14,5 km/h (3 Bft) 97,87 %
28.02.2017 10:54 5,9 C 79 % 1004,2 hPa 0,0 l/m 11,8 km/h (2 Bft) SW 214 0 min 0,000 mm 0,0 UV-I 105 W/m 2,5 C 1,9 C 19,3 km/h (3 Bft) 97,87 %
28.02.2017 10:56 5,9 C 79 % 1004,3 hPa 0,0 l/m 11,3 km/h (2 Bft) W-SW 251 0 min 0,000 mm 0,0 UV-I 100 W/m 2,5 C 2,2 C 16,1 km/h (3 Bft) 94,00 %
28.02.2017 10:58 5,9 C 79 % 1004,3 hPa 0,0 l/m 12,8 km/h (3 Bft) SW 235 0 min 0,000 mm 0,0 UV-I 103 W/m 2,5 C 1,3 C 19,3 km/h (3 Bft) 97,87 %
28.02.2017 11:00 5,9 C 79 % 1004,2 hPa 0,0 l/m 11,3 km/h (2 Bft) S-SW 202 0 min 0,051 mm 0,0 UV-I 103 W/m 2,5 C 2,2 C 19,3 km/h (3 Bft) 93,62 %
28.02.2017 11:02 5,9 C 79 % 1004,2 hPa 0,0 l/m 10,9 km/h (2 Bft) SW 215 0 min 0,000 mm 0,0 UV-I 105 W/m 2,5 C 2,5 C 17,7 km/h (3 Bft) 97,37 %
28.02.2017 11:04 5,9 C 79 % 1004,2 hPa 0,0 l/m 11,0 km/h (2 Bft) W 269 0 min 0,000 mm 0,0 UV-I 107 W/m 2,5 C 2,4 C 16,1 km/h (3 Bft) 97,87 %
28.02.2017 11:06 5,9 C 78 % 1004,1 hPa 0,0 l/m 9,9 km/h (2 Bft) W-SW 241 0 min 0,000 mm 0,3 UV-I 119 W/m 2,4 C 3,1 C 16,1 km/h (3 Bft) 100,00 %
28.02.2017 11:08 5,9 C 79 % 1004,0 hPa 0,0 l/m 6,5 km/h (2 Bft) W-SW 258 0 min 0,000 mm 0,5 UV-I 147 W/m 2,5 C 5,8 C 14,5 km/h (3 Bft) 97,87 %
28.02.2017 11:10 6,0 C 79 % 1003,9 hPa 0,0 l/m 7,2 km/h (2 Bft) W-SW 257 0 min 0,000 mm 0,6 UV-I 157 W/m 2,6 C 5,3 C 14,5 km/h (3 Bft) 95,74 %
28.02.2017 11:12 6,0 C 78 % 1004,0 hPa 0,0 l/m 11,2 km/h (2 Bft) W-SW 240 0 min 0,000 mm 0,6 UV-I 154 W/m 2,5 C 2,4 C 17,7 km/h (3 Bft) 95,74 %
28.02.2017 11:14 6,1 C 78 % 1004,1 hPa 0,0 l/m 13,5 km/h (3 Bft) W 262 0 min 0,000 mm 0,5 UV-I 127 W/m 2,6 C 1,2 C 19,3 km/h (3 Bft) 100,00 %
28.02.2017 11:16 6,1 C 78 % 1004,0 hPa 0,0 l/m 10,2 km/h (2 Bft) W 265 0 min 0,000 mm 0,0 UV-I 111 W/m 2,6 C 3,2 C 17,7 km/h (3 Bft) 95,74 %
28.02.2017 11:18 6,1 C 78 % 1004,2 hPa 0,0 l/m 10,9 km/h (2 Bft) SW 216 0 min 0,000 mm 0,0 UV-I 101 W/m 2,6 C 2,7 C 17,7 km/h (3 Bft) 94,00 %
28.02.2017 11:20 6,1 C 78 % 1004,2 hPa 0,0 l/m 10,4 km/h (2 Bft) W-SW 248 0 min 0,000 mm 0,0 UV-I 96 W/m 2,6 C 3,0 C 16,1 km/h (3 Bft) 98,00 %
28.02.2017 11:22 6,1 C 79 % 1004,3 hPa 0,0 l/m 7,2 km/h (2 Bft) W 263 0 min 0,000 mm 0,0 UV-I 92 W/m 2,7 C 5,4 C 12,9 km/h (3 Bft) 97,87 %
28.02.2017 11:24 6,1 C 79 % 1004,2 hPa 0,0 l/m 10,4 km/h (2 Bft) W-SW 252 0 min 0,000 mm 0,3 UV-I 112 W/m 2,7 C 3,0 C 17,7 km/h (3 Bft) 93,62 %
28.02.2017 11:26 6,0 C 79 % 1004,2 hPa 0,0 l/m 10,0 km/h (2 Bft) SW 226 0 min 0,000 mm 0,6 UV-I 145 W/m 2,6 C 3,2 C 14,5 km/h (3 Bft) 100,00 %
28.02.2017 11:28 6,1 C 79 % 1004,2 hPa 0,0 l/m 10,1 km/h (2 Bft) S-SW 212 0 min 0,000 mm 0,6 UV-I 156 W/m 2,7 C 3,2 C 16,1 km/h (3 Bft) 95,92 %
28.02.2017 11:30 6,1 C 79 % 1004,2 hPa 0,0 l/m 10,0 km/h (2 Bft) SW 236 0 min 0,000 mm 0,6 UV-I 166 W/m 2,7 C 3,3 C 16,1 km/h (3 Bft) 94,00 %
28.02.2017 11:32 6,1 C 79 % 1004,1 hPa 0,0 l/m 12,1 km/h (2 Bft) SW 226 0 min 0,000 mm 0,7 UV-I 174 W/m 2,7 C 2,0 C 19,3 km/h (3 Bft) 95,74 %
28.02.2017 11:34 6,1 C 79 % 1004,1 hPa 0,0 l/m 10,3 km/h (2 Bft) W-SW 243 0 min 0,000 mm 0,7 UV-I 188 W/m 2,7 C 3,1 C 16,1 km/h (3 Bft) 97,14 %
28.02.2017 11:36 6,2 C 79 % 1004,1 hPa 0,0 l/m 9,3 km/h (2 Bft) SW 235 0 min 0,000 mm 0,8 UV-I 219 W/m 2,8 C 3,9 C 16,1 km/h (3 Bft) 96,77 %
28.02.2017 11:38 6,2 C 79 % 1004,0 hPa 0,0 l/m 6,4 km/h (2 Bft) SW 225 0 min 0,000 mm 0,9 UV-I 241 W/m 2,8 C 6,2 C 12,9 km/h (3 Bft) 94,74 %
28.02.2017 11:40 6,3 C 79 % 1003,9 hPa 0,0 l/m 10,6 km/h (2 Bft) SW 224 0 min 0,000 mm 0,9 UV-I 217 W/m 2,9 C 3,1 C 17,7 km/h (3 Bft) 90,00 %
28.02.2017 11:42 6,3 C 80 % 1004,0 hPa 0,0 l/m 10,4 km/h (2 Bft) S-SW 211 0 min 0,000 mm 0,9 UV-I 223 W/m 3,1 C 3,2 C 14,5 km/h (3 Bft) 98,00 %
28.02.2017 11:44 6,3 C 80 % 1003,9 hPa 0,0 l/m 8,2 km/h (2 Bft) W-SW 250 0 min 0,000 mm 0,9 UV-I 238 W/m 3,1 C 4,8 C 17,7 km/h (3 Bft) 97,87 %
28.02.2017 11:46 6,3 C 79 % 1003,9 hPa 0,0 l/m 10,8 km/h (2 Bft) SW 229 0 min 0,000 mm 0,9 UV-I 229 W/m 2,9 C 3,0 C 16,1 km/h (3 Bft) 95,74 %
28.02.2017 11:48 6,3 C 80 % 1003,9 hPa 0,0 l/m 10,2 km/h (2 Bft) W 267 0 min 0,000 mm 1,1 UV-I 286 W/m 3,1 C 3,4 C 14,5 km/h (3 Bft) 97,50 %
28.02.2017 11:50 6,4 C 79 % 1003,8 hPa 0,0 l/m 8,4 km/h (2 Bft) S-SW 207 0 min 0,000 mm 1,1 UV-I 287 W/m 3,0 C 4,8 C 12,9 km/h (3 Bft) 89,36 %
28.02.2017 11:52 6,5 C 79 % 1003,9 hPa 0,0 l/m 8,1 km/h (2 Bft) SW 232 0 min 0,000 mm 1,0 UV-I 276 W/m 3,1 C 5,1 C 14,5 km/h (3 Bft) 91,49 %
28.02.2017 11:54 6,5 C 78 % 1003,9 hPa 0,0 l/m 12,2 km/h (2 Bft) S-SW 213 0 min 0,000 mm 1,0 UV-I 274 W/m 2,9 C 2,4 C 19,3 km/h (3 Bft) 93,62 %
28.02.2017 11:56 6,6 C 79 % 1003,9 hPa 0,0 l/m 10,3 km/h (2 Bft) SW 215 0 min 0,000 mm 1,0 UV-I 255 W/m 3,2 C 3,6 C 16,1 km/h (3 Bft) 93,62 %
28.02.2017 11:58 6,6 C 79 % 1003,9 hPa 0,0 l/m 12,5 km/h (3 Bft) W-SW 242 0 min 0,000 mm 0,9 UV-I 227 W/m 3,2 C 2,3 C 17,7 km/h (3 Bft) 96,00 %
28.02.2017 12:00 6,6 C 79 % 1003,9 hPa 0,0 l/m 9,2 km/h (2 Bft) S-SW 198 0 min 0,102 mm 0,8 UV-I 220 W/m 3,2 C 4,4 C 16,1 km/h (3 Bft) 98,00 %
28.02.2017 12:02 6,6 C 78 % 1003,8 hPa 0,0 l/m 9,7 km/h (2 Bft) SW 228 0 min 0,000 mm 0,9 UV-I 237 W/m 3,0 C 4,0 C 14,5 km/h (3 Bft) 95,74 %
28.02.2017 12:04 6,6 C 78 % 1003,7 hPa 0,0 l/m 8,2 km/h (2 Bft) S-SW 213 0 min 0,000 mm 0,9 UV-I 236 W/m 3,0 C 5,1 C 12,9 km/h (3 Bft) 93,62 %
28.02.2017 12:06 6,6 C 78 % 1003,7 hPa 0,0 l/m 8,3 km/h (2 Bft) W-SW 238 0 min 0,000 mm 0,9 UV-I 236 W/m 3,0 C 5,1 C 12,9 km/h (3 Bft) 100,00 %
28.02.2017 12:08 6,6 C 78 % 1003,7 hPa 0,0 l/m 6,2 km/h (2 Bft) SW 223 0 min 0,000 mm 0,8 UV-I 219 W/m 3,0 C 6,6 C 9,7 km/h (2 Bft) 95,74 %
28.02.2017 12:10 6,6 C 78 % 1003,6 hPa 0,0 l/m 8,5 km/h (2 Bft) SW 225 0 min 0,000 mm 0,8 UV-I 216 W/m 3,0 C 4,9 C 14,5 km/h (3 Bft) 93,62 %
28.02.2017 12:12 6,6 C 77 % 1003,6 hPa 0,0 l/m 7,6 km/h (2 Bft) SW 228 0 min 0,000 mm 0,8 UV-I 209 W/m 2,9 C 5,6 C 12,9 km/h (3 Bft) 100,00 %
28.02.2017 12:14 6,5 C 77 % 1003,6 hPa 0,0 l/m 6,4 km/h (2 Bft) W-SW 237 0 min 0,000 mm 0,7 UV-I 195 W/m 2,8 C 6,5 C 11,3 km/h (2 Bft) 100,00 %
28.02.2017 12:16 6,5 C 78 % 1003,7 hPa 0,0 l/m 8,2 km/h (2 Bft) SW 225 0 min 0,000 mm 0,6 UV-I 172 W/m 2,9 C 5,0 C 11,3 km/h (2 Bft) 97,87 %
28.02.2017 12:18 6,4 C 78 % 1003,6 hPa 0,0 l/m 8,0 km/h (2 Bft) SW 216 0 min 0,000 mm 0,6 UV-I 154 W/m 2,8 C 5,1 C 14,5 km/h (3 Bft) 93,62 %
28.02.2017 12:20 6,4 C 78 % 1003,6 hPa 0,0 l/m 7,6 km/h (2 Bft) S-SW 194 0 min 0,000 mm 0,5 UV-I 133 W/m 2,8 C 5,4 C 14,5 km/h (3 Bft) 100,00 %
28.02.2017 12:22 6,4 C 77 % 1003,6 hPa 0,0 l/m 6,0 km/h (2 Bft) SW 224 0 min 0,000 mm 0,5 UV-I 134 W/m 2,7 C 6,4 C 9,7 km/h (2 Bft) 95,74 %
28.02.2017 12:24 6,3 C 78 % 1003,6 hPa 0,0 l/m 5,6 km/h (1 Bft) S-SW 207 0 min 0,000 mm 0,5 UV-I 121 W/m 2,8 C 6,3 C 8,0 km/h (2 Bft) 93,62 %
28.02.2017 12:26 6,3 C 78 % 1003,6 hPa 0,0 l/m 7,3 km/h (2 Bft) SW 221 0 min 0,000 mm 0,1 UV-I 106 W/m 2,8 C 5,5 C 11,3 km/h (2 Bft) 100,00 %
28.02.2017 12:28 6,3 C 78 % 1003,6 hPa 0,0 l/m 6,6 km/h (2 Bft) S-SW 195 0 min 0,000 mm 0,3 UV-I 119 W/m 2,8 C 6,2 C 14,5 km/h (3 Bft) 100,00 %
28.02.2017 12:30 6,3 C 78 % 1003,5 hPa 0,0 l/m 7,4 km/h (2 Bft) SW 215 0 min 0,000 mm 0,5 UV-I 123 W/m 2,8 C 5,5 C 12,9 km/h (3 Bft) 95,83 %
28.02.2017 12:32 6,3 C 78 % 1003,5 hPa 0,0 l/m 5,0 km/h (1 Bft) W-SW 240 0 min 0,000 mm 0,5 UV-I 128 W/m 2,8 C 6,3 C 8,0 km/h (2 Bft) 100,00 %
28.02.2017 12:34 6,3 C 78 % 1003,4 hPa 0,0 l/m 6,1 km/h (2 Bft) S-SW 192 0 min 0,000 mm 0,6 UV-I 141 W/m 2,8 C 6,3 C 9,7 km/h (2 Bft) 93,62 %
28.02.2017 12:36 6,3 C 78 % 1003,3 hPa 0,0 l/m 5,4 km/h (1 Bft) S-SW 210 0 min 0,000 mm 0,6 UV-I 169 W/m 2,8 C 6,3 C 8,0 km/h (2 Bft) 96,00 %
28.02.2017 12:38 6,4 C 78 % 1003,3 hPa 0,0 l/m 5,8 km/h (2 Bft) SW 219 0 min 0,000 mm 0,7 UV-I 185 W/m 2,8 C 6,4 C 9,7 km/h (2 Bft) 98,00 %
28.02.2017 12:40 6,5 C 78 % 1003,2 hPa 0,0 l/m 7,7 km/h (2 Bft) S-SW 208 0 min 0,000 mm 0,7 UV-I 187 W/m 2,9 C 5,4 C 12,9 km/h (3 Bft) 93,62 %
28.02.2017 12:42 6,5 C 77 % 1003,2 hPa 0,0 l/m 6,2 km/h (2 Bft) S-SW 210 0 min 0,000 mm 0,8 UV-I 195 W/m 2,8 C 6,5 C 11,3 km/h (2 Bft) 97,87 %
28.02.2017 12:44 6,6 C 77 % 1003,2 hPa 0,0 l/m 5,6 km/h (1 Bft) SW 233 0 min 0,000 mm 0,8 UV-I 216 W/m 2,9 C 6,6 C 8,0 km/h (2 Bft) 89,36 %
28.02.2017 12:46 6,6 C 76 % 1003,2 hPa 0,0 l/m 4,8 km/h (1 Bft) W-SW 245 0 min 0,000 mm 0,8 UV-I 204 W/m 2,7 C 6,6 C 6,4 km/h (2 Bft) 97,87 %
28.02.2017 12:48 6,6 C 76 % 1003,1 hPa 0,0 l/m 6,7 km/h (2 Bft) SW 222 0 min 0,000 mm 0,7 UV-I 197 W/m 2,7 C 6,4 C 11,3 km/h (2 Bft) 94,87 %
28.02.2017 12:50 6,7 C 77 % 1003,0 hPa 0,0 l/m 5,1 km/h (1 Bft) W-SW 243 0 min 0,000 mm 0,7 UV-I 194 W/m 3,0 C 6,7 C 8,0 km/h (2 Bft) 95,74 %
28.02.2017 12:52 6,7 C 77 % 1003,0 hPa 0,0 l/m 5,3 km/h (1 Bft) W-SW 255 0 min 0,000 mm 0,7 UV-I 181 W/m 3,0 C 6,7 C 9,7 km/h (2 Bft) 100,00 %
28.02.2017 12:54 6,7 C 77 % 1003,0 hPa 0,0 l/m 3,5 km/h (1 Bft) W-SW 246 0 min 0,000 mm 0,6 UV-I 165 W/m 3,0 C 6,7 C 4,8 km/h (1 Bft) 100,00 %
28.02.2017 12:56 6,6 C 76 % 1003,0 hPa 0,0 l/m 2,7 km/h (1 Bft) SW 222 0 min 0,000 mm 0,5 UV-I 142 W/m 2,7 C 6,6 C 9,7 km/h (2 Bft) 93,62 %
28.02.2017 12:58 6,6 C 76 % 1003,0 hPa 0,0 l/m 7,8 km/h (2 Bft) SW 215 0 min 0,000 mm 0,5 UV-I 139 W/m 2,7 C 5,4 C 9,7 km/h (2 Bft) 100,00 %
28.02.2017 13:00 6,6 C 76 % 1002,9 hPa 0,0 l/m 5,9 km/h (2 Bft) SW 221 0 min 0,076 mm 0,6 UV-I 143 W/m 2,7 C 6,6 C 9,7 km/h (2 Bft) 100,00 %
28.02.2017 13:02 6,6 C 76 % 1002,9 hPa 0,0 l/m 4,7 km/h (1 Bft) S-SW 207 0 min 0,000 mm 0,6 UV-I 134 W/m 2,7 C 6,6 C 8,0 km/h (2 Bft) 95,74 %
28.02.2017 13:04 6,5 C 76 % 1002,8 hPa 0,0 l/m 4,5 km/h (1 Bft) W-SW 240 0 min 0,000 mm 0,5 UV-I 125 W/m 2,6 C 6,5 C 6,4 km/h (2 Bft) 97,87 %
28.02.2017 13:06 6,4 C 76 % 1002,9 hPa 0,0 l/m 4,0 km/h (1 Bft) W-SW 239 0 min 0,000 mm 0,3 UV-I 108 W/m 2,5 C 6,4 C 6,4 km/h (2 Bft) 97,92 %
28.02.2017 13:08 6,4 C 76 % 1002,9 hPa 0,0 l/m 3,0 km/h (1 Bft) SW 227 0 min 0,000 mm 0,0 UV-I 85 W/m 2,5 C 6,4 C 4,8 km/h (1 Bft) 97,87 %
28.02.2017 13:10 6,4 C 76 % 1002,9 hPa 0,0 l/m 4,0 km/h (1 Bft) SW 221 0 min 0,000 mm 0,0 UV-I 81 W/m 2,5 C 6,4 C 8,0 km/h (2 Bft) 95,74 %
28.02.2017 13:12 6,4 C 76 % 1002,9 hPa 0,0 l/m 6,3 km/h (2 Bft) S-SW 211 0 min 0,000 mm 0,0 UV-I 90 W/m 2,5 C 6,4 C 9,7 km/h (2 Bft) 93,62 %
28.02.2017 13:14 6,4 C 76 % 1002,8 hPa 0,0 l/m 4,2 km/h (1 Bft) S-SW 200 0 min 0,000 mm 0,1 UV-I 115 W/m 2,5 C 6,4 C 6,4 km/h (2 Bft) 95,74 %
28.02.2017 13:16 6,4 C 76 % 1002,8 hPa 0,0 l/m 2,4 km/h (1 Bft) S-SO 159 0 min 0,000 mm 0,5 UV-I 128 W/m 2,5 C 6,4 C 6,4 km/h (2 Bft) 98,04 %
28.02.2017 13:18 6,4 C 76 % 1002,8 hPa 0,0 l/m 3,7 km/h (1 Bft) S-SW 203 0 min 0,000 mm 0,5 UV-I 119 W/m 2,5 C 6,4 C 6,4 km/h (2 Bft) 93,62 %
28.02.2017 13:20 6,4 C 77 % 1002,7 hPa 0,0 l/m 3,2 km/h (1 Bft) S-SW 200 0 min 0,000 mm 0,5 UV-I 120 W/m 2,7 C 6,4 C 6,4 km/h (2 Bft) 95,74 %
28.02.2017 13:22 6,4 C 76 % 1002,7 hPa 0,0 l/m 2,5 km/h (1 Bft) S 185 0 min 0,000 mm 0,5 UV-I 128 W/m 2,5 C 6,4 C 4,8 km/h (1 Bft) 93,62 %
28.02.2017 13:24 6,4 C 76 % 1002,6 hPa 0,0 l/m 1,2 km/h (1 Bft) S 185 0 min 0,000 mm 0,5 UV-I 138 W/m 2,5 C 6,4 C 3,2 km/h (1 Bft) 97,87 %
28.02.2017 13:26 6,4 C 76 % 1002,6 hPa 0,0 l/m 1,0 km/h (0 Bft) S 185 0 min 0,000 mm 0,5 UV-I 138 W/m 2,5 C 6,4 C 3,2 km/h (1 Bft) 97,30 %
28.02.2017 13:28 6,4 C 76 % 1002,5 hPa 0,0 l/m 0,8 km/h (0 Bft) S 185 0 min 0,000 mm 0,5 UV-I 130 W/m 2,5 C 6,4 C 3,2 km/h (1 Bft) 93,62 %
28.02.2017 13:30 6,4 C 75 % 1002,5 hPa 0,0 l/m 3,4 km/h (1 Bft) S 186 0 min 0,000 mm 0,5 UV-I 113 W/m 2,3 C 6,4 C 6,4 km/h (2 Bft) 95,74 %
28.02.2017 13:32 6,4 C 76 % 1002,5 hPa 0,0 l/m 1,4 km/h (1 Bft) S 184 0 min 0,000 mm 0,5 UV-I 116 W/m 2,5 C 6,4 C 3,2 km/h (1 Bft) 97,87 %
28.02.2017 13:34 6,3 C 75 % 1002,5 hPa 0,0 l/m 1,0 km/h (0 Bft) S 184 0 min 0,000 mm 0,5 UV-I 129 W/m 2,2 C 6,3 C 3,2 km/h (1 Bft) 97,87 %
28.02.2017 13:36 6,3 C 75 % 1002,4 hPa 0,0 l/m 1,5 km/h (1 Bft) S 184 0 min 0,000 mm 0,5 UV-I 133 W/m 2,2 C 6,3 C 3,2 km/h (1 Bft) 93,62 %
28.02.2017 13:38 6,3 C 76 % 1002,4 hPa 0,0 l/m 3,1 km/h (1 Bft) S-SW 196 0 min 0,000 mm 0,5 UV-I 122 W/m 2,4 C 6,3 C 6,4 km/h (2 Bft) 96,00 %
28.02.2017 13:40 6,4 C 76 % 1002,3 hPa 0,0 l/m 1,2 km/h (1 Bft) S-SW 196 0 min 0,000 mm 0,5 UV-I 134 W/m 2,5 C 6,4 C 3,2 km/h (1 Bft) 97,87 %
28.02.2017 13:42 6,4 C 76 % 1002,3 hPa 0,0 l/m 0,4 km/h (0 Bft) S-SW 196 0 min 0,000 mm 0,5 UV-I 144 W/m 2,5 C 6,4 C 1,6 km/h (1 Bft) 97,87 %
28.02.2017 13:44 6,5 C 76 % 1002,3 hPa 0,0 l/m 2,7 km/h (1 Bft) S-SO 154 0 min 0,000 mm 0,5 UV-I 138 W/m 2,6 C 6,5 C 6,4 km/h (2 Bft) 93,62 %
28.02.2017 13:46 6,5 C 76 % 1002,3 hPa 0,0 l/m 3,3 km/h (1 Bft) SO 140 0 min 0,000 mm 0,5 UV-I 139 W/m 2,6 C 6,5 C 4,8 km/h (1 Bft) 90,00 %
28.02.2017 13:48 6,5 C 76 % 1002,2 hPa 0,0 l/m 2,6 km/h (1 Bft) SO 140 0 min 0,000 mm 0,5 UV-I 143 W/m 2,6 C 6,5 C 4,8 km/h (1 Bft) 97,87 %
28.02.2017 13:50 6,5 C 76 % 1002,1 hPa 0,0 l/m 4,1 km/h (1 Bft) SO 139 0 min 0,000 mm 0,5 UV-I 142 W/m 2,6 C 6,5 C 6,4 km/h (2 Bft) 95,74 %
28.02.2017 13:52 6,6 C 75 % 1002,1 hPa 0,0 l/m 0,9 km/h (0 Bft) SO 139 0 min 0,000 mm 0,5 UV-I 131 W/m 2,5 C 6,6 C 3,2 km/h (1 Bft) 93,62 %
28.02.2017 13:54 6,6 C 75 % 1002,1 hPa 0,0 l/m 2,4 km/h (1 Bft) SO 139 0 min 0,000 mm 0,1 UV-I 123 W/m 2,5 C 6,6 C 4,8 km/h (1 Bft) 93,62 %
28.02.2017 13:56 6,6 C 75 % 1002,1 hPa 0,0 l/m 2,4 km/h (1 Bft) SO 139 0 min 0,000 mm 0,0 UV-I 108 W/m 2,5 C 6,6 C 4,8 km/h (1 Bft) 100,00 %
28.02.2017 13:58 6,5 C 74 % 1002,0 hPa 0,0 l/m 3,8 km/h (1 Bft) O-SO 110 0 min 0,000 mm 0,0 UV-I 99 W/m 2,2 C 6,5 C 6,4 km/h (2 Bft) 100,00 %
28.02.2017 14:00 6,5 C 74 % 1002,0 hPa 0,0 l/m 5,1 km/h (1 Bft) O-SO 120 0 min 0,000 mm 0,0 UV-I 98 W/m 2,2 C 6,5 C 9,7 km/h (2 Bft) 97,92 %
28.02.2017 14:02 6,4 C 74 % 1001,9 hPa 0,0 l/m 1,4 km/h (1 Bft) O-SO 120 0 min 0,051 mm 0,0 UV-I 85 W/m 2,1 C 6,4 C 3,2 km/h (1 Bft) 91,49 %
28.02.2017 14:04 6,5 C 75 % 1002,0 hPa 0,0 l/m 1,2 km/h (1 Bft) O-SO 120 0 min 0,000 mm 0,0 UV-I 85 W/m 2,4 C 6,5 C 3,2 km/h (1 Bft) 97,87 %
28.02.2017 14:06 6,5 C 75 % 1001,8 hPa 0,0 l/m 4,4 km/h (1 Bft) O-SO 120 0 min 0,000 mm 0,0 UV-I 90 W/m 2,4 C 6,5 C 6,4 km/h (2 Bft) 97,87 %
28.02.2017 14:08 6,5 C 74 % 1001,8 hPa 0,0 l/m 3,9 km/h (1 Bft) O-SO 109 0 min 0,000 mm 0,0 UV-I 95 W/m 2,2 C 6,5 C 6,4 km/h (2 Bft) 97,87 %
28.02.2017 14:10 6,5 C 74 % 1001,7 hPa 0,0 l/m 4,0 km/h (1 Bft) SO 126 0 min 0,000 mm 0,4 UV-I 122 W/m 2,2 C 6,5 C 6,4 km/h (2 Bft) 93,62 %
28.02.2017 14:12 6,5 C 73 % 1001,7 hPa 0,0 l/m 1,7 km/h (1 Bft) SO 142 0 min 0,000 mm 0,5 UV-I 133 W/m 2,0 C 6,5 C 6,4 km/h (2 Bft) 94,00 %
28.02.2017 14:14 6,6 C 73 % 1001,7 hPa 0,0 l/m 2,5 km/h (1 Bft) SO 127 0 min 0,000 mm 0,5 UV-I 131 W/m 2,1 C 6,6 C 6,4 km/h (2 Bft) 98,00 %
28.02.2017 14:16 6,6 C 74 % 1001,6 hPa 0,0 l/m 4,0 km/h (1 Bft) SO 127 0 min 0,000 mm 0,5 UV-I 135 W/m 2,3 C 6,6 C 4,8 km/h (1 Bft) 96,00 %
28.02.2017 14:18 6,6 C 75 % 1001,6 hPa 0,0 l/m 4,1 km/h (1 Bft) O-NO 78 0 min 0,000 mm 0,3 UV-I 135 W/m 2,5 C 6,6 C 8,0 km/h (2 Bft) 97,14 %
28.02.2017 14:20 6,6 C 75 % 1001,6 hPa 0,0 l/m 5,1 km/h (1 Bft) NO 55 0 min 0,000 mm 0,4 UV-I 139 W/m 2,5 C 6,6 C 8,0 km/h (2 Bft) 93,62 %
28.02.2017 14:22 6,6 C 75 % 1001,6 hPa 0,0 l/m 5,6 km/h (1 Bft) O-NO 67 0 min 0,000 mm 0,0 UV-I 118 W/m 2,5 C 6,6 C 8,0 km/h (2 Bft) 95,74 %
28.02.2017 14:24 6,6 C 75 % 1001,6 hPa 0,0 l/m 6,8 km/h (2 Bft) NO 55 0 min 0,000 mm 0,0 UV-I 117 W/m 2,5 C 6,3 C 9,7 km/h (2 Bft) 97,87 %
28.02.2017 14:26 6,6 C 74 % 1001,5 hPa 0,0 l/m 5,2 km/h (1 Bft) O-NO 58 0 min 0,000 mm 0,1 UV-I 125 W/m 2,3 C 6,6 C 6,4 km/h (2 Bft) 95,74 %
28.02.2017 14:28 6,6 C 74 % 1001,4 hPa 0,0 l/m 4,7 km/h (1 Bft) O-NO 75 0 min 0,000 mm 0,5 UV-I 129 W/m 2,3 C 6,6 C 6,4 km/h (2 Bft) 97,87 %
28.02.2017 14:30 6,6 C 75 % 1001,4 hPa 0,0 l/m 7,1 km/h (2 Bft) O-NO 66 0 min 0,000 mm 0,5 UV-I 123 W/m 2,5 C 6,0 C 8,0 km/h (2 Bft) 100,00 %
28.02.2017 14:32 6,6 C 74 % 1001,3 hPa 0,0 l/m 7,1 km/h (2 Bft) NO 53 0 min 0,000 mm 0,5 UV-I 140 W/m 2,3 C 6,0 C 9,7 km/h (2 Bft) 93,62 %
28.02.2017 14:34 6,6 C 74 % 1001,3 hPa 0,0 l/m 7,9 km/h (2 Bft) NO 51 0 min 0,000 mm 0,5 UV-I 157 W/m 2,3 C 5,4 C 11,3 km/h (2 Bft) 97,87 %
28.02.2017 14:36 6,6 C 73 % 1001,3 hPa 0,0 l/m 7,5 km/h (2 Bft) O 83 0 min 0,000 mm 0,5 UV-I 168 W/m 2,1 C 5,7 C 9,7 km/h (2 Bft) 97,87 %
28.02.2017 14:38 6,6 C 73 % 1001,3 hPa 0,0 l/m 8,1 km/h (2 Bft) NO 56 0 min 0,000 mm 0,6 UV-I 189 W/m 2,1 C 5,2 C 12,9 km/h (3 Bft) 98,00 %
28.02.2017 14:40 6,7 C 73 % 1001,2 hPa 0,0 l/m 7,1 km/h (2 Bft) O-NO 74 0 min 0,000 mm 0,6 UV-I 196 W/m 2,2 C 6,1 C 9,7 km/h (2 Bft) 95,74 %
28.02.2017 14:42 6,7 C 73 % 1001,1 hPa 0,0 l/m 7,7 km/h (2 Bft) O 92 0 min 0,000 mm 0,6 UV-I 190 W/m 2,2 C 5,6 C 14,5 km/h (3 Bft) 97,87 %
28.02.2017 14:44 6,7 C 73 % 1001,1 hPa 0,0 l/m 9,8 km/h (2 Bft) O 80 0 min 0,000 mm 0,5 UV-I 184 W/m 2,2 C 4,1 C 12,9 km/h (3 Bft) 98,00 %
28.02.2017 14:46 6,7 C 73 % 1001,0 hPa 0,0 l/m 12,1 km/h (2 Bft) O 82 0 min 0,000 mm 0,5 UV-I 180 W/m 2,2 C 2,7 C 17,7 km/h (3 Bft) 95,83 %
28.02.2017 14:48 6,7 C 74 % 1000,9 hPa 0,0 l/m 10,1 km/h (2 Bft) O-NO 76 0 min 0,000 mm 0,5 UV-I 185 W/m 2,4 C 3,9 C 16,1 km/h (3 Bft) 95,74 %
28.02.2017 14:50 6,7 C 72 % 1000,9 hPa 0,0 l/m 13,3 km/h (3 Bft) O-NO 71 0 min 0,000 mm 0,5 UV-I 185 W/m 2,0 C 2,0 C 16,1 km/h (3 Bft) 97,87 %
28.02.2017 14:52 6,7 C 73 % 1000,9 hPa 0,0 l/m 10,1 km/h (2 Bft) O-NO 76 0 min 0,000 mm 0,5 UV-I 179 W/m 2,2 C 3,9 C 16,1 km/h (3 Bft) 93,62 %
28.02.2017 14:54 6,7 C 74 % 1000,8 hPa 0,0 l/m 10,4 km/h (2 Bft) O-NO 78 0 min 0,000 mm 0,5 UV-I 168 W/m 2,4 C 3,7 C 14,5 km/h (3 Bft) 97,87 %
28.02.2017 14:56 6,8 C 75 % 1000,8 hPa 0,0 l/m 11,6 km/h (2 Bft) O-NO 72 0 min 0,000 mm 0,5 UV-I 179 W/m 2,7 C 3,1 C 16,1 km/h (3 Bft) 97,87 %
28.02.2017 14:59 6,8 C 74 % 1000,6 hPa 0,0 l/m 10,6 km/h (2 Bft) O 85 0 min 0,000 mm 0,3 UV-I 162 W/m 2,5 C 3,7 C 16,1 km/h (3 Bft) 94,29 %
28.02.2017 15:00 6,8 C 74 % 1000,6 hPa 0,0 l/m 11,9 km/h (2 Bft) O-NO 67 0 min 0,000 mm 0,0 UV-I 155 W/m 2,5 C 2,9 C 14,5 km/h (3 Bft) 95,83 %
28.02.2017 15:02 6,8 C 74 % 1000,6 hPa 0,0 l/m 12,8 km/h (3 Bft) O-NO 78 0 min 0,076 mm 0,0 UV-I 168 W/m 2,5 C 2,4 C 17,7 km/h (3 Bft) 100,00 %
28.02.2017 15:04 6,8 C 74 % 1000,5 hPa 0,0 l/m 11,7 km/h (2 Bft) O-NO 61 0 min 0,000 mm 0,0 UV-I 170 W/m 2,5 C 3,0 C 16,1 km/h (3 Bft) 100,00 %
28.02.2017 15:06 6,8 C 75 % 1000,4 hPa 0,0 l/m 14,9 km/h (3 Bft) NO 54 0 min 0,000 mm 0,0 UV-I 150 W/m 2,7 C 1,3 C 19,3 km/h (3 Bft) 93,62 %
28.02.2017 15:08 6,7 C 74 % 1000,4 hPa 0,0 l/m 13,4 km/h (3 Bft) O-NO 69 0 min 0,000 mm 0,0 UV-I 142 W/m 2,4 C 1,9 C 19,3 km/h (3 Bft) 94,74 %
28.02.2017 15:10 6,7 C 75 % 1000,4 hPa 0,0 l/m 13,2 km/h (3 Bft) O 92 0 min 0,000 mm 0,0 UV-I 150 W/m 2,6 C 2,0 C 17,7 km/h (3 Bft) 97,87 %
28.02.2017 15:12 6,7 C 75 % 1000,3 hPa 0,0 l/m 13,1 km/h (3 Bft) O-NO 75 0 min 0,000 mm 0,0 UV-I 145 W/m 2,6 C 2,1 C 20,9 km/h (4 Bft) 96,00 %
28.02.2017 15:14 6,8 C 74 % 1000,3 hPa 0,0 l/m 15,6 km/h (3 Bft) O-NO 67 0 min 0,000 mm 0,0 UV-I 139 W/m 2,5 C 1,0 C 20,9 km/h (4 Bft) 93,62 %
28.02.2017 15:16 6,7 C 74 % 1000,3 hPa 0,0 l/m 12,9 km/h (3 Bft) O-NO 74 0 min 0,000 mm 0,0 UV-I 134 W/m 2,4 C 2,2 C 16,1 km/h (3 Bft) 96,00 %
28.02.2017 15:18 6,7 C 75 % 1000,3 hPa 0,0 l/m 12,6 km/h (3 Bft) O-NO 74 0 min 0,000 mm 0,0 UV-I 124 W/m 2,6 C 2,4 C 17,7 km/h (3 Bft) 100,00 %
28.02.2017 15:20 6,7 C 75 % 1000,2 hPa 0,0 l/m 13,8 km/h (3 Bft) O 82 0 min 0,000 mm 0,0 UV-I 117 W/m 2,6 C 1,7 C 19,3 km/h (3 Bft) 98,00 %
28.02.2017 15:22 6,7 C 76 % 1000,2 hPa 0,0 l/m 14,5 km/h (3 Bft) O 79 0 min 0,000 mm 0,0 UV-I 116 W/m 2,8 C 1,4 C 19,3 km/h (3 Bft) 95,74 %
28.02.2017 15:24 6,7 C 76 % 1000,1 hPa 0,0 l/m 13,1 km/h (3 Bft) O-NO 71 0 min 0,000 mm 0,0 UV-I 137 W/m 2,8 C 2,1 C 19,3 km/h (3 Bft) 95,74 %
28.02.2017 15:26 6,7 C 76 % 1000,1 hPa 0,0 l/m 14,2 km/h (3 Bft) NO 44 0 min 0,000 mm 0,0 UV-I 157 W/m 2,8 C 1,5 C 20,9 km/h (4 Bft) 95,74 %
28.02.2017 15:28 6,7 C 75 % 1000,0 hPa 0,0 l/m 16,2 km/h (3 Bft) O-NO 71 0 min 0,000 mm 0,0 UV-I 179 W/m 2,6 C 0,6 C 20,9 km/h (4 Bft) 96,00 %
28.02.2017 15:30 6,7 C 75 % 999,9 hPa 0,0 l/m 17,4 km/h (3 Bft) O-NO 61 0 min 0,000 mm 0,0 UV-I 166 W/m 2,6 C 0,1 C 25,7 km/h (4 Bft) 98,00 %
28.02.2017 15:32 6,7 C 76 % 999,9 hPa 0,0 l/m 16,4 km/h (3 Bft) NO 50 0 min 0,000 mm 0,0 UV-I 138 W/m 2,8 C 0,5 C 20,9 km/h (4 Bft) 97,87 %
28.02.2017 15:34 6,7 C 75 % 999,9 hPa 0,0 l/m 18,2 km/h (3 Bft) NO 36 0 min 0,000 mm 0,0 UV-I 135 W/m 2,6 C -0,3 C 24,1 km/h (4 Bft) 95,74 %
28.02.2017 15:36 6,7 C 75 % 999,9 hPa 0,0 l/m 18,1 km/h (3 Bft) NO 53 0 min 0,000 mm 0,0 UV-I 149 W/m 2,6 C -0,2 C 25,7 km/h (4 Bft) 97,87 %
28.02.2017 15:38 6,7 C 76 % 999,8 hPa 0,0 l/m 15,8 km/h (3 Bft) O-NO 67 0 min 0,000 mm 0,0 UV-I 141 W/m 2,8 C 0,8 C 25,7 km/h (4 Bft) 95,74 %
28.02.2017 15:40 6,7 C 76 % 999,8 hPa 0,0 l/m 16,3 km/h (3 Bft) O-NO 60 0 min 0,000 mm 0,0 UV-I 117 W/m 2,8 C 0,5 C 20,9 km/h (4 Bft) 95,74 %
28.02.2017 15:42 6,7 C 75 % 999,7 hPa 0,0 l/m 21,1 km/h (4 Bft) O 82 0 min 0,000 mm 0,0 UV-I 88 W/m 2,6 C -1,4 C 27,4 km/h (4 Bft) 97,14 %
28.02.2017 15:44 6,6 C 75 % 999,6 hPa 0,0 l/m 19,3 km/h (3 Bft) O-NO 59 0 min 0,000 mm 0,0 UV-I 78 W/m 2,5 C -0,8 C 25,7 km/h (4 Bft) 96,23 %
28.02.2017 15:46 6,6 C 75 % 999,5 hPa 0,0 l/m 15,7 km/h (3 Bft) O-NO 61 0 min 0,000 mm 0,0 UV-I 85 W/m 2,5 C 0,7 C 22,5 km/h (4 Bft) 95,74 %
28.02.2017 15:48 6,6 C 75 % 999,4 hPa 0,0 l/m 16,3 km/h (3 Bft) O-NO 69 0 min 0,000 mm 0,0 UV-I 84 W/m 2,5 C 0,4 C 24,1 km/h (4 Bft) 95,74 %
28.02.2017 15:50 6,6 C 76 % 999,3 hPa 0,0 l/m 16,6 km/h (3 Bft) O 88 0 min 0,000 mm 0,0 UV-I 79 W/m 2,7 C 0,3 C 22,5 km/h (4 Bft) 97,87 %
28.02.2017 15:52 6,5 C 76 % 999,3 hPa 0,0 l/m 17,6 km/h (3 Bft) O-NO 78 0 min 0,000 mm 0,0 UV-I 72 W/m 2,6 C -0,3 C 22,5 km/h (4 Bft) 91,49 %
28.02.2017 15:54 6,5 C 76 % 999,3 hPa 0,0 l/m 16,0 km/h (3 Bft) NO 40 0 min 0,000 mm 0,0 UV-I 70 W/m 2,6 C 0,4 C 20,9 km/h (4 Bft) 93,62 %
28.02.2017 15:56 6,5 C 76 % 999,2 hPa 0,0 l/m 16,1 km/h (3 Bft) O-NO 72 0 min 0,000 mm 0,0 UV-I 71 W/m 2,6 C 0,4 C 22,5 km/h (4 Bft) 100,00 %
28.02.2017 15:58 6,5 C 76 % 999,2 hPa 0,0 l/m 17,3 km/h (3 Bft) O 84 0 min 0,000 mm 0,0 UV-I 72 W/m 2,6 C -0,2 C 22,5 km/h (4 Bft) 100,00 %
28.02.2017 16:00 6,4 C 76 % 999,2 hPa 0,0 l/m 15,3 km/h (3 Bft) NO 55 0 min 0,076 mm 0,0 UV-I 74 W/m 2,5 C 0,6 C 20,9 km/h (4 Bft) 100,00 %
28.02.2017 16:02 6,5 C 77 % 999,1 hPa 0,0 l/m 13,5 km/h (3 Bft) O-NO 67 0 min 0,000 mm 0,0 UV-I 73 W/m 2,8 C 1,7 C 19,3 km/h (3 Bft) 100,00 %
28.02.2017 16:04 6,4 C 77 % 999,2 hPa 0,0 l/m 15,3 km/h (3 Bft) O-NO 78 0 min 0,000 mm 0,0 UV-I 70 W/m 2,7 C 0,6 C 20,9 km/h (4 Bft) 95,83 %
28.02.2017 16:06 6,4 C 76 % 999,2 hPa 0,0 l/m 17,0 km/h (3 Bft) NO 46 0 min 0,000 mm 0,0 UV-I 69 W/m 2,5 C -0,1 C 24,1 km/h (4 Bft) 97,87 %
28.02.2017 16:08 6,4 C 76 % 999,2 hPa 0,0 l/m 15,4 km/h (3 Bft) O-NO 62 0 min 0,000 mm 0,0 UV-I 69 W/m 2,5 C 0,6 C 22,5 km/h (4 Bft) 97,37 %
28.02.2017 16:10 6,4 C 76 % 999,1 hPa 0,0 l/m 17,6 km/h (3 Bft) O 92 0 min 0,000 mm 0,0 UV-I 67 W/m 2,5 C -0,4 C 22,5 km/h (4 Bft) 100,00 %
28.02.2017 16:12 6,4 C 76 % 999,1 hPa 0,0 l/m 15,1 km/h (3 Bft) O-NO 72 0 min 0,000 mm 0,0 UV-I 66 W/m 2,5 C 0,7 C 22,5 km/h (4 Bft) 97,87 %
28.02.2017 16:14 6,4 C 76 % 999,0 hPa 0,0 l/m 15,9 km/h (3 Bft) O-NO 78 0 min 0,000 mm 0,0 UV-I 67 W/m 2,5 C 0,3 C 20,9 km/h (4 Bft) 100,00 %
28.02.2017 16:16 6,4 C 76 % 998,8 hPa 0,0 l/m 16,8 km/h (3 Bft) NO 55 0 min 0,000 mm 0,0 UV-I 69 W/m 2,5 C -0,1 C 22,5 km/h (4 Bft) 93,62 %
28.02.2017 16:18 6,4 C 77 % 998,7 hPa 0,0 l/m 13,7 km/h (3 Bft) NO 50 0 min 0,000 mm 0,0 UV-I 70 W/m 2,7 C 1,4 C 19,3 km/h (3 Bft) 93,62 %
28.02.2017 16:20 6,4 C 77 % 998,7 hPa 0,0 l/m 15,2 km/h (3 Bft) O-NO 61 0 min 0,000 mm 0,0 UV-I 68 W/m 2,7 C 0,7 C 20,9 km/h (4 Bft) 100,00 %
28.02.2017 16:22 6,3 C 77 % 998,6 hPa 0,0 l/m 14,4 km/h (3 Bft) O-NO 67 0 min 0,000 mm 0,0 UV-I 62 W/m 2,6 C 0,9 C 20,9 km/h (4 Bft) 98,00 %
28.02.2017 16:24 6,3 C 77 % 998,7 hPa 0,0 l/m 15,3 km/h (3 Bft) O-NO 67 0 min 0,000 mm 0,0 UV-I 62 W/m 2,6 C 0,5 C 22,5 km/h (4 Bft) 97,87 %
28.02.2017 16:26 6,3 C 77 % 998,7 hPa 0,0 l/m 14,9 km/h (3 Bft) O-NO 61 0 min 0,000 mm 0,0 UV-I 63 W/m 2,6 C 0,7 C 19,3 km/h (3 Bft) 94,74 %
28.02.2017 16:28 6,3 C 77 % 998,7 hPa 0,0 l/m 13,5 km/h (3 Bft) O 82 0 min 0,000 mm 0,0 UV-I 62 W/m 2,6 C 1,4 C 17,7 km/h (3 Bft) 100,00 %
28.02.2017 16:30 6,3 C 77 % 998,6 hPa 0,0 l/m 15,4 km/h (3 Bft) NO 47 0 min 0,000 mm 0,0 UV-I 57 W/m 2,6 C 0,5 C 19,3 km/h (3 Bft) 98,00 %
28.02.2017 16:32 6,3 C 77 % 998,5 hPa 0,0 l/m 16,0 km/h (3 Bft) NO 45 0 min 0,000 mm 0,0 UV-I 47 W/m 2,6 C 0,2 C 22,5 km/h (4 Bft) 100,00 %
28.02.2017 16:34 6,3 C 77 % 998,5 hPa 0,0 l/m 16,6 km/h (3 Bft) O-NO 65 0 min 0,000 mm 0,0 UV-I 40 W/m 2,6 C -0,1 C 20,9 km/h (4 Bft) 98,00 %
28.02.2017 16:36 6,3 C 77 % 998,5 hPa 0,0 l/m 17,5 km/h (3 Bft) O-NO 68 0 min 0,000 mm 0,0 UV-I 37 W/m 2,6 C -0,5 C 22,5 km/h (4 Bft) 100,00 %
28.02.2017 16:38 6,2 C 77 % 998,4 hPa 0,0 l/m 15,7 km/h (3 Bft) O-NO 65 0 min 0,000 mm 0,0 UV-I 37 W/m 2,5 C 0,2 C 20,9 km/h (4 Bft) 95,74 %
28.02.2017 16:40 6,2 C 78 % 998,4 hPa 0,0 l/m 15,5 km/h (3 Bft) O-NO 61 0 min 0,000 mm 0,0 UV-I 37 W/m 2,7 C 0,3 C 20,9 km/h (4 Bft) 100,00 %
28.02.2017 16:42 6,2 C 78 % 998,4 hPa 0,0 l/m 15,2 km/h (3 Bft) NO 51 0 min 0,000 mm 0,0 UV-I 39 W/m 2,7 C 0,4 C 19,3 km/h (3 Bft) 97,87 %
28.02.2017 16:44 6,2 C 78 % 998,4 hPa 0,0 l/m 16,1 km/h (3 Bft) O-NO 63 0 min 0,000 mm 0,0 UV-I 39 W/m 2,7 C 0,0 C 20,9 km/h (4 Bft) 97,87 %
28.02.2017 16:46 6,1 C 78 % 998,3 hPa 0,0 l/m 14,0 km/h (3 Bft) NO 56 0 min 0,000 mm 0,0 UV-I 39 W/m 2,6 C 0,9 C 19,3 km/h (3 Bft) 95,83 %
28.02.2017 16:48 6,1 C 78 % 998,3 hPa 0,0 l/m 15,8 km/h (3 Bft) O 80 0 min 0,000 mm 0,0 UV-I 37 W/m 2,6 C 0,0 C 19,3 km/h (3 Bft) 100,00 %
28.02.2017 16:50 6,1 C 78 % 998,3 hPa 0,0 l/m 14,0 km/h (3 Bft) NO 50 0 min 0,000 mm 0,0 UV-I 35 W/m 2,6 C 0,9 C 22,5 km/h (4 Bft) 92,00 %
28.02.2017 16:52 6,1 C 78 % 998,1 hPa 0,0 l/m 14,7 km/h (3 Bft) O 80 0 min 0,000 mm 0,0 UV-I 32 W/m 2,6 C 0,6 C 19,3 km/h (3 Bft) 97,87 %
28.02.2017 16:54 6,1 C 78 % 998,1 hPa 0,0 l/m 13,4 km/h (3 Bft) O-NO 62 0 min 0,000 mm 0,0 UV-I 30 W/m 2,6 C 1,2 C 19,3 km/h (3 Bft) 100,00 %
28.02.2017 16:56 6,0 C 78 % 998,1 hPa 0,0 l/m 11,4 km/h (2 Bft) NO 53 0 min 0,000 mm 0,0 UV-I 28 W/m 2,5 C 2,3 C 16,1 km/h (3 Bft) 100,00 %
28.02.2017 16:58 6,0 C 78 % 998,0 hPa 0,0 l/m 11,5 km/h (2 Bft) O-NO 58 0 min 0,000 mm 0,0 UV-I 26 W/m 2,5 C 2,2 C 16,1 km/h (3 Bft) 100,00 %
28.02.2017 17:00 5,9 C 79 % 997,9 hPa 0,0 l/m 6,6 km/h (2 Bft) O-NO 61 0 min 0,000 mm 0,0 UV-I 25 W/m 2,5 C 5,8 C 9,7 km/h (2 Bft) 100,00 %
28.02.2017 17:02 5,9 C 79 % 997,9 hPa 0,0 l/m 8,9 km/h (2 Bft) O-NO 77 0 min 0,051 mm 0,0 UV-I 23 W/m 2,5 C 3,9 C 14,5 km/h (3 Bft) 97,87 %
28.02.2017 17:04 5,8 C 80 % 997,9 hPa 0,0 l/m 10,0 km/h (2 Bft) NO 52 0 min 0,000 mm 0,0 UV-I 22 W/m 2,6 C 3,0 C 16,1 km/h (3 Bft) 97,87 %
28.02.2017 17:06 5,8 C 80 % 997,9 hPa 0,0 l/m 10,3 km/h (2 Bft) NO 55 0 min 0,000 mm 0,0 UV-I 21 W/m 2,6 C 2,8 C 14,5 km/h (3 Bft) 97,87 %
28.02.2017 17:08 5,8 C 80 % 997,8 hPa 0,0 l/m 8,2 km/h (2 Bft) NO 49 0 min 0,000 mm 0,0 UV-I 19 W/m 2,6 C 4,3 C 12,9 km/h (3 Bft) 95,74 %
28.02.2017 17:10 5,8 C 80 % 997,8 hPa 0,0 l/m 10,3 km/h (2 Bft) O-NO 60 0 min 0,000 mm 0,0 UV-I 19 W/m 2,6 C 2,8 C 14,5 km/h (3 Bft) 100,00 %
28.02.2017 17:12 5,8 C 80 % 997,7 hPa 0,0 l/m 10,7 km/h (2 Bft) NO 56 0 min 0,000 mm 0,0 UV-I 19 W/m 2,6 C 2,5 C 16,1 km/h (3 Bft) 97,87 %
28.02.2017 17:14 5,8 C 80 % 997,7 hPa 0,0 l/m 11,5 km/h (2 Bft) O-NO 60 0 min 0,000 mm 0,0 UV-I 18 W/m 2,6 C 2,0 C 16,1 km/h (3 Bft) 97,87 %
28.02.2017 17:16 5,7 C 80 % 997,6 hPa 0,0 l/m 13,1 km/h (3 Bft) NO 56 0 min 0,000 mm 0,0 UV-I 16 W/m 2,5 C 0,9 C 16,1 km/h (3 Bft) 90,57 %
28.02.2017 17:18 5,7 C 81 % 997,5 hPa 0,0 l/m 14,6 km/h (3 Bft) NO 42 0 min 0,000 mm 0,0 UV-I 14 W/m 2,7 C 0,1 C 19,3 km/h (3 Bft) 97,87 %
28.02.2017 17:20 5,7 C 81 % 997,6 hPa 0,0 l/m 12,2 km/h (2 Bft) NO 45 0 min 0,000 mm 0,0 UV-I 14 W/m 2,7 C 1,4 C 19,3 km/h (3 Bft) 97,87 %
28.02.2017 17:22 5,7 C 81 % 997,5 hPa 0,0 l/m 14,2 km/h (3 Bft) O-NO 65 0 min 0,000 mm 0,0 UV-I 12 W/m 2,7 C 0,3 C 20,9 km/h (4 Bft) 100,00 %
28.02.2017 17:24 5,7 C 81 % 997,5 hPa 0,0 l/m 16,1 km/h (3 Bft) O-NO 63 0 min 0,000 mm 0,0 UV-I 12 W/m 2,7 C -0,6 C 24,1 km/h (4 Bft) 98,11 %
28.02.2017 17:26 5,7 C 81 % 997,5 hPa 0,0 l/m 13,0 km/h (3 Bft) O-NO 69 0 min 0,000 mm 0,0 UV-I 12 W/m 2,7 C 1,0 C 19,3 km/h (3 Bft) 95,74 %
28.02.2017 17:28 5,6 C 81 % 997,4 hPa 0,0 l/m 11,6 km/h (2 Bft) NO 47 0 min 0,000 mm 0,0 UV-I 12 W/m 2,6 C 1,7 C 16,1 km/h (3 Bft) 97,87 %
28.02.2017 17:30 5,6 C 81 % 997,3 hPa 0,0 l/m 13,5 km/h (3 Bft) NO 46 0 min 0,000 mm 0,0 UV-I 12 W/m 2,6 C 0,6 C 17,7 km/h (3 Bft) 94,74 %
28.02.2017 17:32 5,6 C 81 % 997,3 hPa 0,0 l/m 14,1 km/h (3 Bft) NO 50 0 min 0,000 mm 0,0 UV-I 11 W/m 2,6 C 0,3 C 19,3 km/h (3 Bft) 93,62 %
28.02.2017 17:34 5,6 C 81 % 997,3 hPa 0,0 l/m 11,7 km/h (2 Bft) NO 51 0 min 0,000 mm 0,0 UV-I 10 W/m 2,6 C 1,6 C 17,7 km/h (3 Bft) 95,74 %
28.02.2017 17:36 5,6 C 81 % 997,3 hPa 0,0 l/m 16,3 km/h (3 Bft) O-NO 65 2 min 0,000 mm 0,0 UV-I 9 W/m 2,6 C -0,8 C 20,9 km/h (4 Bft) 92,00 %
28.02.2017 17:38 5,5 C 81 % 997,2 hPa 0,0 l/m 14,9 km/h (3 Bft) O-NO 57 0 min 0,000 mm 0,0 UV-I 9 W/m 2,5 C -0,3 C 20,9 km/h (4 Bft) 96,00 %
28.02.2017 17:40 5,5 C 81 % 997,1 hPa 0,0 l/m 12,6 km/h (3 Bft) O-NO 63 0 min 0,000 mm 0,0 UV-I 9 W/m 2,5 C 1,0 C 17,7 km/h (3 Bft) 88,00 %
28.02.2017 17:42 5,5 C 81 % 997,1 hPa 0,0 l/m 11,7 km/h (2 Bft) NO 53 0 min 0,000 mm 0,0 UV-I 7 W/m 2,5 C 1,5 C 16,1 km/h (3 Bft) 92,11 %
28.02.2017 17:44 5,5 C 81 % 997,1 hPa 0,0 l/m 11,5 km/h (2 Bft) O-NO 63 0 min 0,000 mm 0,0 UV-I 5 W/m 2,5 C 1,6 C 19,3 km/h (3 Bft) 93,62 %
28.02.2017 17:46 5,4 C 81 % 997,0 hPa 0,0 l/m 11,5 km/h (2 Bft) O-NO 58 0 min 0,000 mm 0,0 UV-I 5 W/m 2,4 C 1,5 C 16,1 km/h (3 Bft) 89,36 %
28.02.2017 17:48 5,4 C 81 % 997,0 hPa 0,0 l/m 9,4 km/h (2 Bft) O-NO 69 0 min 0,000 mm 0,0 UV-I 5 W/m 2,4 C 2,9 C 14,5 km/h (3 Bft) 91,49 %
28.02.2017 17:50 5,4 C 81 % 997,0 hPa 0,0 l/m 9,0 km/h (2 Bft) NO 42 0 min 0,000 mm 0,0 UV-I 5 W/m 2,4 C 3,2 C 16,1 km/h (3 Bft) 91,67 %
28.02.2017 17:52 5,4 C 81 % 996,9 hPa 0,0 l/m 9,5 km/h (2 Bft) NO 45 0 min 0,000 mm 0,0 UV-I 3 W/m 2,4 C 2,9 C 14,5 km/h (3 Bft) 95,31 %
28.02.2017 17:54 5,4 C 81 % 996,9 hPa 0,0 l/m 8,5 km/h (2 Bft) NO 52 0 min 0,000 mm 0,0 UV-I 0 W/m 2,4 C 3,6 C 12,9 km/h (3 Bft) 97,87 %
28.02.2017 17:56 5,3 C 81 % 996,9 hPa 0,0 l/m 8,0 km/h (2 Bft) NO 55 0 min 0,000 mm 0,0 UV-I 0 W/m 2,3 C 3,9 C 14,5 km/h (3 Bft) 95,12 %
28.02.2017 17:58 5,3 C 81 % 996,9 hPa 0,0 l/m 10,0 km/h (2 Bft) O-NO 60 0 min 0,000 mm 0,0 UV-I 0 W/m 2,3 C 2,4 C 14,5 km/h (3 Bft) 95,74 %
28.02.2017 18:00 5,3 C 81 % 996,9 hPa 0,0 l/m 9,7 km/h (2 Bft) O-NO 63 0 min 0,000 mm 0,0 UV-I 0 W/m 2,3 C 2,6 C 16,1 km/h (3 Bft) 100,00 %
28.02.2017 18:02 5,3 C 81 % 996,8 hPa 0,0 l/m 13,0 km/h (3 Bft) O-NO 74 0 min 0,025 mm 0,0 UV-I 0 W/m 2,3 C 0,5 C 17,7 km/h (3 Bft) 97,96 %
28.02.2017 18:04 5,3 C 82 % 996,8 hPa 0,0 l/m 9,3 km/h (2 Bft) O-NO 69 0 min 0,000 mm 0,0 UV-I 0 W/m 2,5 C 2,9 C 14,5 km/h (3 Bft) 100,00 %
28.02.2017 18:06 5,3 C 82 % 996,7 hPa 0,0 l/m 9,6 km/h (2 Bft) NO 56 0 min 0,000 mm 0,0 UV-I 0 W/m 2,5 C 2,7 C 14,5 km/h (3 Bft) 100,00 %
28.02.2017 18:08 5,3 C 82 % 996,7 hPa 0,0 l/m 10,1 km/h (2 Bft) NO 40 0 min 0,000 mm 0,0 UV-I 0 W/m 2,5 C 2,3 C 16,1 km/h (3 Bft) 97,87 %
28.02.2017 18:10 5,2 C 83 % 996,7 hPa 0,0 l/m 11,7 km/h (2 Bft) O-NO 71 0 min 0,000 mm 0,0 UV-I 0 W/m 2,6 C 1,2 C 16,1 km/h (3 Bft) 95,74 %
28.02.2017 18:12 5,2 C 83 % 996,7 hPa 0,0 l/m 12,1 km/h (2 Bft) O-NO 59 0 min 0,000 mm 0,0 UV-I 0 W/m 2,6 C 0,9 C 17,7 km/h (3 Bft) 100,00 %
28.02.2017 18:14 5,2 C 83 % 996,6 hPa 0,0 l/m 10,5 km/h (2 Bft) O-NO 57 0 min 0,000 mm 0,0 UV-I 0 W/m 2,6 C 1,9 C 16,1 km/h (3 Bft) 97,87 %
28.02.2017 18:16 5,2 C 83 % 996,4 hPa 0,0 l/m 9,7 km/h (2 Bft) O-NO 57 0 min 0,000 mm 0,0 UV-I 0 W/m 2,6 C 2,5 C 14,5 km/h (3 Bft) 100,00 %
28.02.2017 18:18 5,2 C 83 % 996,4 hPa 0,0 l/m 12,1 km/h (2 Bft) NO 52 0 min 0,000 mm 0,0 UV-I 0 W/m 2,6 C 0,9 C 16,1 km/h (3 Bft) 100,00 %
28.02.2017 18:20 5,2 C 83 % 996,4 hPa 0,0 l/m 10,1 km/h (2 Bft) NO 41 0 min 0,000 mm 0,0 UV-I 0 W/m 2,6 C 2,2 C 14,5 km/h (3 Bft) 97,87 %
28.02.2017 18:22 5,2 C 83 % 996,4 hPa 0,0 l/m 11,0 km/h (2 Bft) NO 54 0 min 0,000 mm 0,0 UV-I 0 W/m 2,6 C 1,6 C 16,1 km/h (3 Bft) 97,87 %
28.02.2017 18:24 5,1 C 83 % 996,4 hPa 0,0 l/m 9,9 km/h (2 Bft) NO 55 0 min 0,000 mm 0,0 UV-I 0 W/m 2,5 C 2,3 C 14,5 km/h (3 Bft) 97,87 %
28.02.2017 18:26 5,1 C 83 % 996,4 hPa 0,0 l/m 9,7 km/h (2 Bft) O-NO 63 0 min 0,000 mm 0,0 UV-I 0 W/m 2,5 C 2,4 C 14,5 km/h (3 Bft) 97,87 %
28.02.2017 18:28 5,1 C 83 % 996,4 hPa 0,0 l/m 10,1 km/h (2 Bft) O-NO 57 0 min 0,000 mm 0,0 UV-I 0 W/m 2,5 C 2,1 C 14,5 km/h (3 Bft) 100,00 %
28.02.2017 18:30 5,1 C 83 % 996,4 hPa 0,0 l/m 9,3 km/h (2 Bft) NO 49 0 min 0,000 mm 0,0 UV-I 0 W/m 2,5 C 2,7 C 12,9 km/h (3 Bft) 97,14 %
28.02.2017 18:32 5,1 C 84 % 996,3 hPa 0,0 l/m 9,9 km/h (2 Bft) O-NO 72 0 min 0,000 mm 0,0 UV-I 0 W/m 2,6 C 2,3 C 14,5 km/h (3 Bft) 100,00 %
28.02.2017 18:34 5,1 C 84 % 996,2 hPa 0,0 l/m 9,6 km/h (2 Bft) O-NO 59 0 min 0,000 mm 0,0 UV-I 0 W/m 2,6 C 2,5 C 14,5 km/h (3 Bft) 95,74 %
28.02.2017 18:36 5,0 C 84 % 996,3 hPa 0,0 l/m 10,2 km/h (2 Bft) O-NO 62 0 min 0,000 mm 0,0 UV-I 0 W/m 2,5 C 1,9 C 16,1 km/h (3 Bft) 100,00 %
28.02.2017 18:38 5,0 C 84 % 996,2 hPa 0,0 l/m 9,0 km/h (2 Bft) O-NO 59 0 min 0,000 mm 0,0 UV-I 0 W/m 2,5 C 2,8 C 14,5 km/h (3 Bft) 93,62 %
28.02.2017 18:40 5,0 C 84 % 996,3 hPa 0,0 l/m 6,3 km/h (2 Bft) NO 55 0 min 0,000 mm 0,0 UV-I 0 W/m 2,5 C 5,0 C 9,7 km/h (2 Bft) 100,00 %
28.02.2017 18:42 5,0 C 84 % 996,3 hPa 0,0 l/m 7,2 km/h (2 Bft) NO 54 0 min 0,000 mm 0,0 UV-I 0 W/m 2,5 C 4,3 C 9,7 km/h (2 Bft) 95,74 %
28.02.2017 18:44 5,0 C 84 % 996,2 hPa 0,0 l/m 7,8 km/h (2 Bft) O-NO 58 0 min 0,000 mm 0,0 UV-I 0 W/m 2,5 C 3,8 C 11,3 km/h (2 Bft) 95,74 %
28.02.2017 18:46 5,0 C 84 % 996,2 hPa 0,0 l/m 8,3 km/h (2 Bft) NO 55 0 min 0,000 mm 0,0 UV-I 0 W/m 2,5 C 3,4 C 12,9 km/h (3 Bft) 100,00 %
28.02.2017 18:48 5,0 C 84 % 996,1 hPa 0,0 l/m 7,9 km/h (2 Bft) O-NO 60 0 min 0,000 mm 0,0 UV-I 0 W/m 2,5 C 3,7 C 12,9 km/h (3 Bft) 97,87 %
28.02.2017 18:50 5,0 C 84 % 996,1 hPa 0,0 l/m 7,7 km/h (2 Bft) O-NO 66 0 min 0,000 mm 0,0 UV-I 0 W/m 2,5 C 3,9 C 11,3 km/h (2 Bft) 93,62 %
28.02.2017 18:52 5,0 C 84 % 996,1 hPa 0,0 l/m 6,6 km/h (2 Bft) O-NO 63 0 min 0,000 mm 0,0 UV-I 0 W/m 2,5 C 4,8 C 12,9 km/h (3 Bft) 97,87 %
28.02.2017 18:54 4,9 C 84 % 996,0 hPa 0,0 l/m 8,0 km/h (2 Bft) O-NO 58 0 min 0,000 mm 0,0 UV-I 0 W/m 2,4 C 3,5 C 11,3 km/h (2 Bft) 100,00 %
28.02.2017 18:56 4,9 C 84 % 996,0 hPa 0,0 l/m 5,4 km/h (1 Bft) O-NO 60 0 min 0,000 mm 0,0 UV-I 0 W/m 2,4 C 4,9 C 9,7 km/h (2 Bft) 95,74 %
28.02.2017 18:58 4,9 C 84 % 996,0 hPa 0,0 l/m 5,8 km/h (2 Bft) N-NO 22 0 min 0,000 mm 0,0 UV-I 0 W/m 2,4 C 4,9 C 11,3 km/h (2 Bft) 100,00 %
28.02.2017 19:00 4,8 C 84 % 996,0 hPa 0,0 l/m 8,4 km/h (2 Bft) NO 43 0 min 0,000 mm 0,0 UV-I 0 W/m 2,3 C 3,1 C 11,3 km/h (2 Bft) 100,00 %
28.02.2017 19:02 4,8 C 84 % 995,9 hPa 0,0 l/m 6,6 km/h (2 Bft) N-NO 25 0 min 0,026 mm 0,0 UV-I 0 W/m 2,3 C 4,6 C 9,7 km/h (2 Bft) 100,00 %
28.02.2017 19:04 4,8 C 84 % 995,9 hPa 0,0 l/m 4,5 km/h (1 Bft) NO 44 0 min 0,000 mm 0,0 UV-I 0 W/m 2,3 C 4,8 C 8,0 km/h (2 Bft) 93,62 %
28.02.2017 19:06 4,8 C 85 % 995,9 hPa 0,0 l/m 6,1 km/h (2 Bft) NO 36 0 min 0,000 mm 0,0 UV-I 0 W/m 2,5 C 4,8 C 8,0 km/h (2 Bft) 100,00 %
28.02.2017 19:08 4,8 C 85 % 995,9 hPa 0,0 l/m 4,9 km/h (1 Bft) NO 34 0 min 0,000 mm 0,0 UV-I 0 W/m 2,5 C 4,8 C 9,7 km/h (2 Bft) 97,87 %
28.02.2017 19:10 4,7 C 85 % 995,9 hPa 0,0 l/m 5,1 km/h (1 Bft) N-NO 26 0 min 0,000 mm 0,0 UV-I 0 W/m 2,4 C 4,7 C 8,0 km/h (2 Bft) 97,87 %
28.02.2017 19:12 4,6 C 85 % 995,8 hPa 0,0 l/m 4,4 km/h (1 Bft) N-NO 27 0 min 0,000 mm 0,0 UV-I 0 W/m 2,3 C 4,6 C 8,0 km/h (2 Bft) 95,74 %
28.02.2017 19:14 4,6 C 85 % 995,8 hPa 0,0 l/m 3,3 km/h (1 Bft) NO 37 0 min 0,000 mm 0,0 UV-I 0 W/m 2,3 C 4,6 C 6,4 km/h (2 Bft) 100,00 %
28.02.2017 19:16 4,5 C 86 % 995,8 hPa 0,0 l/m 4,3 km/h (1 Bft) N-NO 25 0 min 0,000 mm 0,0 UV-I 0 W/m 2,4 C 4,5 C 8,0 km/h (2 Bft) 97,87 %
28.02.2017 19:18 4,4 C 86 % 995,7 hPa 0,0 l/m 1,9 km/h (1 Bft) N-NO 25 0 min 0,000 mm 0,0 UV-I 0 W/m 2,3 C 4,4 C 4,8 km/h (1 Bft) 97,92 %
28.02.2017 19:20 4,4 C 86 % 995,8 hPa 0,0 l/m 0,7 km/h (0 Bft) N-NO 25 0 min 0,000 mm 0,0 UV-I 0 W/m 2,3 C 4,4 C 3,2 km/h (1 Bft) 95,74 %
28.02.2017 19:22 4,3 C 86 % 995,7 hPa 0,0 l/m 0,4 km/h (0 Bft) N-NO 25 0 min 0,000 mm 0,0 UV-I 0 W/m 2,2 C 4,3 C 1,6 km/h (1 Bft) 98,08 %
28.02.2017 19:24 4,3 C 86 % 995,7 hPa 0,0 l/m 1,9 km/h (1 Bft) N-NO 25 0 min 0,000 mm 0,0 UV-I 0 W/m 2,2 C 4,3 C 4,8 km/h (1 Bft) 95,83 %
28.02.2017 19:26 4,3 C 86 % 995,7 hPa 0,0 l/m 1,2 km/h (1 Bft) N-NO 21 0 min 0,000 mm 0,0 UV-I 0 W/m 2,2 C 4,3 C 4,8 km/h (1 Bft) 93,62 %
28.02.2017 19:28 4,2 C 86 % 995,6 hPa 0,0 l/m 0,3 km/h (0 Bft) N-NO 21 0 min 0,000 mm 0,0 UV-I 0 W/m 2,1 C 4,2 C 1,6 km/h (1 Bft) 97,37 %
28.02.2017 19:30 4,2 C 87 % 995,6 hPa 0,0 l/m 0,0 km/h (0 Bft) N-NO 21 0 min 0,000 mm 0,0 UV-I 0 W/m 2,2 C 4,2 C 0,0 km/h (0 Bft) 85,11 %
28.02.2017 19:32 4,1 C 87 % 995,5 hPa 0,0 l/m 1,2 km/h (1 Bft) N-NO 13 0 min 0,000 mm 0,0 UV-I 0 W/m 2,1 C 4,1 C 6,4 km/h (2 Bft) 95,74 %
28.02.2017 19:34 4,0 C 87 % 995,5 hPa 0,0 l/m 0,3 km/h (0 Bft) N-NO 13 0 min 0,000 mm 0,0 UV-I 0 W/m 2,0 C 4,0 C 1,6 km/h (1 Bft) 93,62 %
28.02.2017 19:36 4,0 C 87 % 995,5 hPa 0,0 l/m 0,4 km/h (0 Bft) N 11 0 min 0,000 mm 0,0 UV-I 0 W/m 2,0 C 4,0 C 1,6 km/h (1 Bft) 95,74 %
28.02.2017 19:38 4,0 C 87 % 995,5 hPa 0,0 l/m 0,1 km/h (0 Bft) N 11 0 min 0,000 mm 0,0 UV-I 0 W/m 2,0 C 4,0 C 1,6 km/h (1 Bft) 91,49 %
28.02.2017 19:40 4,1 C 88 % 995,5 hPa 0,0 l/m 0,1 km/h (0 Bft) N 11 0 min 0,000 mm 0,0 UV-I 0 W/m 2,3 C 4,1 C 1,6 km/h (1 Bft) 91,49 %
28.02.2017 19:42 4,1 C 87 % 995,4 hPa 0,0 l/m 0,5 km/h (0 Bft) N 5 0 min 0,000 mm 0,0 UV-I 0 W/m 2,1 C 4,1 C 1,6 km/h (1 Bft) 96,00 %
28.02.2017 19:44 4,1 C 87 % 995,5 hPa 0,0 l/m 0,2 km/h (0 Bft) N 5 0 min 0,000 mm 0,0 UV-I 0 W/m 2,1 C 4,1 C 1,6 km/h (1 Bft) 95,74 %
28.02.2017 19:46 4,2 C 87 % 995,6 hPa 0,0 l/m 0,1 km/h (0 Bft) N 10 0 min 0,000 mm 0,0 UV-I 0 W/m 2,2 C 4,2 C 1,6 km/h (1 Bft) 89,36 %
28.02.2017 19:48 4,2 C 87 % 995,6 hPa 0,0 l/m 0,2 km/h (0 Bft) N 9 0 min 0,000 mm 0,0 UV-I 0 W/m 2,2 C 4,2 C 1,6 km/h (1 Bft) 91,49 %
28.02.2017 19:50 4,2 C 87 % 995,6 hPa 0,0 l/m 0,6 km/h (0 Bft) N-NW 342 0 min 0,000 mm 0,0 UV-I 0 W/m 2,2 C 4,2 C 3,2 km/h (1 Bft) 95,74 %
28.02.2017 19:52 4,3 C 87 % 995,8 hPa 0,0 l/m 1,1 km/h (1 Bft) N-NW 340 0 min 0,000 mm 0,0 UV-I 0 W/m 2,3 C 4,3 C 3,2 km/h (1 Bft) 93,62 %
28.02.2017 19:54 4,3 C 86 % 995,8 hPa 0,0 l/m 1,5 km/h (1 Bft) N-NW 337 0 min 0,000 mm 0,0 UV-I 0 W/m 2,2 C 4,3 C 3,2 km/h (1 Bft) 89,74 %
28.02.2017 19:56 4,3 C 86 % 995,9 hPa 0,0 l/m 1,4 km/h (1 Bft) N-NW 338 0 min 0,000 mm 0,0 UV-I 0 W/m 2,2 C 4,3 C 3,2 km/h (1 Bft) 96,00 %
28.02.2017 19:58 4,3 C 86 % 996,0 hPa 0,0 l/m 1,2 km/h (1 Bft) N-NW 333 0 min 0,000 mm 0,0 UV-I 0 W/m 2,2 C 4,3 C 3,2 km/h (1 Bft) 91,49 %
28.02.2017 20:00 4,3 C 87 % 996,1 hPa 0,0 l/m 0,7 km/h (0 Bft) NW 325 0 min 0,000 mm 0,0 UV-I 0 W/m 2,3 C 4,3 C 3,2 km/h (1 Bft) 93,88 %
28.02.2017 20:02 4,1 C 87 % 996,4 hPa 0,0 l/m 0,5 km/h (0 Bft) NW 325 0 min 0,000 mm 0,0 UV-I 0 W/m 2,1 C 4,1 C 3,2 km/h (1 Bft) 96,23 %
28.02.2017 20:04 4,0 C 88 % 996,6 hPa 0,0 l/m 1,0 km/h (0 Bft) W-NW 302 0 min 0,000 mm 0,0 UV-I 0 W/m 2,2 C 4,0 C 6,4 km/h (2 Bft) 93,62 %
28.02.2017 20:06 3,9 C 88 % 996,9 hPa 0,0 l/m 2,4 km/h (1 Bft) N-NW 329 0 min 0,000 mm 0,0 UV-I 0 W/m 2,1 C 3,9 C 6,4 km/h (2 Bft) 93,62 %
28.02.2017 20:08 3,9 C 89 % 997,1 hPa 0,0 l/m 4,0 km/h (1 Bft) W 281 0 min 0,000 mm 0,0 UV-I 0 W/m 2,3 C 3,9 C 12,9 km/h (3 Bft) 95,74 %
28.02.2017 20:10 4,0 C 89 % 997,4 hPa 0,0 l/m 3,9 km/h (1 Bft) NW 305 0 min 0,000 mm 0,0 UV-I 0 W/m 2,4 C 4,0 C 12,9 km/h (3 Bft) 97,87 %
28.02.2017 20:12 4,1 C 89 % 997,7 hPa 0,0 l/m 7,0 km/h (2 Bft) W 273 0 min 0,000 mm 0,0 UV-I 0 W/m 2,5 C 3,6 C 17,7 km/h (3 Bft) 91,49 %
28.02.2017 20:14 4,2 C 88 % 998,0 hPa 0,0 l/m 8,9 km/h (2 Bft) W-NW 289 0 min 0,000 mm 0,0 UV-I 0 W/m 2,4 C 2,0 C 16,1 km/h (3 Bft) 97,37 %
28.02.2017 20:16 4,4 C 88 % 998,3 hPa 0,0 l/m 13,9 km/h (3 Bft) W 273 0 min 0,000 mm 0,0 UV-I 0 W/m 2,6 C -1,1 C 27,4 km/h (4 Bft) 96,00 %
28.02.2017 20:18 4,6 C 87 % 998,4 hPa 0,0 l/m 14,8 km/h (3 Bft) W-NW 290 0 min 0,000 mm 0,0 UV-I 0 W/m 2,6 C -1,3 C 27,4 km/h (4 Bft) 100,00 %
28.02.2017 20:20 4,7 C 86 % 998,5 hPa 0,0 l/m 14,1 km/h (3 Bft) W 272 0 min 0,000 mm 0,0 UV-I 0 W/m 2,6 C -0,8 C 25,7 km/h (4 Bft) 97,87 %
28.02.2017 20:22 4,8 C 86 % 998,7 hPa 0,0 l/m 13,8 km/h (3 Bft) NW 316 0 min 0,000 mm 0,0 UV-I 0 W/m 2,7 C -0,5 C 29,0 km/h (5 Bft) 98,00 %
28.02.2017 20:24 4,8 C 86 % 998,8 hPa 0,0 l/m 15,1 km/h (3 Bft) W-SW 240 0 min 0,000 mm 0,0 UV-I 0 W/m 2,7 C -1,2 C 25,7 km/h (4 Bft) 93,62 %
28.02.2017 20:26 4,8 C 85 % 999,0 hPa 0,0 l/m 12,4 km/h (3 Bft) NW 325 0 min 0,000 mm 0,0 UV-I 0 W/m 2,5 C 0,3 C 37,0 km/h (5 Bft) 100,00 %
28.02.2017 20:28 4,9 C 85 % 999,1 hPa 0,0 l/m 9,8 km/h (2 Bft) W 279 0 min 0,000 mm 0,0 UV-I 0 W/m 2,6 C 2,1 C 16,1 km/h (3 Bft) 100,00 %
28.02.2017 20:30 4,9 C 85 % 999,1 hPa 0,0 l/m 13,1 km/h (3 Bft) W 281 0 min 0,000 mm 0,0 UV-I 0 W/m 2,6 C -0,0 C 25,7 km/h (4 Bft) 100,00 %
28.02.2017 20:32 5,1 C 85 % 999,2 hPa 0,0 l/m 12,6 km/h (3 Bft) W 280 0 min 0,000 mm 0,0 UV-I 0 W/m 2,8 C 0,5 C 25,7 km/h (4 Bft) 100,00 %
28.02.2017 20:34 5,1 C 85 % 999,4 hPa 0,0 l/m 11,3 km/h (2 Bft) W 275 0 min 0,000 mm 0,0 UV-I 0 W/m 2,8 C 1,3 C 22,5 km/h (4 Bft) 100,00 %
28.02.2017 20:36 5,2 C 85 % 999,5 hPa 0,0 l/m 7,8 km/h (2 Bft) W-NW 289 0 min 0,000 mm 0,0 UV-I 0 W/m 2,9 C 4,0 C 20,9 km/h (4 Bft) 100,00 %
28.02.2017 20:38 5,2 C 86 % 999,6 hPa 0,0 l/m 13,7 km/h (3 Bft) W 277 0 min 0,000 mm 0,0 UV-I 0 W/m 3,1 C 0,0 C 32,2 km/h (5 Bft) 98,11 %
28.02.2017 20:40 5,1 C 86 % 999,7 hPa 0,2 l/m 11,6 km/h (2 Bft) O-NO 57 0 min 0,000 mm 0,0 UV-I 0 W/m 3,0 C 1,1 C 25,7 km/h (4 Bft) 97,22 %
28.02.2017 20:42 5,0 C 88 % 999,9 hPa 0,0 l/m 9,4 km/h (2 Bft) W-NW 303 0 min 0,000 mm 0,0 UV-I 0 W/m 3,2 C 2,5 C 24,1 km/h (4 Bft) 100,00 %
28.02.2017 20:44 4,9 C 89 % 999,9 hPa 0,2 l/m 8,9 km/h (2 Bft) W-NW 284 0 min 0,000 mm 0,0 UV-I 0 W/m 3,2 C 2,8 C 22,5 km/h (4 Bft) 97,87 %
28.02.2017 20:46 4,8 C 90 % 1000,1 hPa 0,2 l/m 8,5 km/h (2 Bft) NW 313 0 min 0,000 mm 0,0 UV-I 0 W/m 3,3 C 3,0 C 20,9 km/h (4 Bft) 100,00 %
28.02.2017 20:48 4,7 C 90 % 1000,1 hPa 0,2 l/m 6,2 km/h (2 Bft) W 275 0 min 0,000 mm 0,0 UV-I 0 W/m 3,2 C 4,7 C 16,1 km/h (3 Bft) 97,87 %
28.02.2017 20:50 4,7 C 91 % 1000,2 hPa 0,0 l/m 7,3 km/h (2 Bft) W 273 0 min 0,000 mm 0,0 UV-I 0 W/m 3,4 C 3,9 C 14,5 km/h (3 Bft) 100,00 %
28.02.2017 20:52 4,6 C 92 % 1000,4 hPa 0,2 l/m 7,4 km/h (2 Bft) W-SW 246 0 min 0,000 mm 0,0 UV-I 0 W/m 3,4 C 3,7 C 14,5 km/h (3 Bft) 100,00 %
28.02.2017 20:54 4,6 C 92 % 1000,5 hPa 0,2 l/m 8,8 km/h (2 Bft) W-NW 294 0 min 0,000 mm 0,0 UV-I 0 W/m 3,4 C 2,5 C 19,3 km/h (3 Bft) 96,00 %
28.02.2017 20:56 4,6 C 92 % 1000,6 hPa 0,0 l/m 13,3 km/h (3 Bft) W 260 0 min 0,000 mm 0,0 UV-I 0 W/m 3,4 C -0,5 C 19,3 km/h (3 Bft) 100,00 %
28.02.2017 20:58 4,5 C 93 % 1000,6 hPa 0,2 l/m 15,6 km/h (3 Bft) N-NW 336 0 min 0,000 mm 0,0 UV-I 0 W/m 3,5 C -1,8 C 24,1 km/h (4 Bft) 100,00 %
28.02.2017 21:00 4,5 C 93 % 1000,8 hPa 0,2 l/m 14,7 km/h (3 Bft) W 268 0 min 0,000 mm 0,0 UV-I 0 W/m 3,5 C -1,4 C 20,9 km/h (4 Bft) 100,00 %
28.02.2017 21:02 4,5 C 93 % 1000,7 hPa 0,2 l/m 17,9 km/h (3 Bft) W-SW 244 0 min 0,000 mm 0,0 UV-I 0 W/m 3,5 C -2,9 C 40,2 km/h (6 Bft) 97,87 %
28.02.2017 21:04 4,5 C 93 % 1000,9 hPa 0,0 l/m 16,5 km/h (3 Bft) W-NW 296 0 min 0,000 mm 0,0 UV-I 0 W/m 3,5 C -2,3 C 33,8 km/h (5 Bft) 100,00 %
28.02.2017 21:06 4,4 C 93 % 1000,9 hPa 0,2 l/m 15,8 km/h (3 Bft) W-SW 251 0 min 0,000 mm 0,0 UV-I 0 W/m 3,4 C -2,1 C 27,4 km/h (4 Bft) 100,00 %
28.02.2017 21:08 4,3 C 93 % 1001,0 hPa 0,2 l/m 12,3 km/h (3 Bft) W 274 0 min 0,000 mm 0,0 UV-I 0 W/m 3,3 C -0,2 C 25,7 km/h (4 Bft) 100,00 %
28.02.2017 21:10 4,2 C 93 % 1001,1 hPa 0,2 l/m 9,5 km/h (2 Bft) W-SW 251 0 min 0,000 mm 0,0 UV-I 0 W/m 3,2 C 1,6 C 17,7 km/h (3 Bft) 100,00 %
28.02.2017 21:12 4,1 C 93 % 1001,2 hPa 0,2 l/m 12,3 km/h (3 Bft) W 279 0 min 0,000 mm 0,0 UV-I 0 W/m 3,1 C -0,5 C 22,5 km/h (4 Bft) 100,00 %
28.02.2017 21:14 4,0 C 93 % 1001,0 hPa 0,0 l/m 15,8 km/h (3 Bft) W 276 0 min 0,000 mm 0,0 UV-I 0 W/m 3,0 C -2,5 C 30,6 km/h (5 Bft) 100,00 %
28.02.2017 21:16 3,9 C 93 % 1001,2 hPa 0,2 l/m 12,3 km/h (3 Bft) W-NW 290 0 min 0,000 mm 0,0 UV-I 0 W/m 2,9 C -0,7 C 17,7 km/h (3 Bft) 95,92 %
28.02.2017 21:18 3,8 C 93 % 1001,3 hPa 0,0 l/m 8,9 km/h (2 Bft) W-NW 293 0 min 0,000 mm 0,0 UV-I 0 W/m 2,8 C 1,6 C 17,7 km/h (3 Bft) 97,87 %
28.02.2017 21:20 3,7 C 93 % 1001,4 hPa 0,0 l/m 9,5 km/h (2 Bft) W-NW 288 0 min 0,000 mm 0,0 UV-I 0 W/m 2,7 C 1,0 C 16,1 km/h (3 Bft) 100,00 %
28.02.2017 21:22 3,7 C 93 % 1001,3 hPa 0,0 l/m 6,6 km/h (2 Bft) W-NW 285 0 min 0,000 mm 0,0 UV-I 0 W/m 2,7 C 3,5 C 11,3 km/h (2 Bft) 95,74 %
28.02.2017 21:24 3,6 C 93 % 1001,3 hPa 0,2 l/m 10,6 km/h (2 Bft) W 259 0 min 0,000 mm 0,0 UV-I 0 W/m 2,6 C 0,1 C 24,1 km/h (4 Bft) 100,00 %
28.02.2017 21:26 3,6 C 94 % 1001,4 hPa 0,0 l/m 12,6 km/h (3 Bft) SW 231 0 min 0,000 mm 0,0 UV-I 0 W/m 2,7 C -1,2 C 19,3 km/h (3 Bft) 95,74 %
28.02.2017 21:28 3,6 C 94 % 1001,3 hPa 0,0 l/m 10,4 km/h (2 Bft) W 270 0 min 0,000 mm 0,0 UV-I 0 W/m 2,7 C 0,2 C 16,1 km/h (3 Bft) 100,00 %
28.02.2017 21:30 3,6 C 94 % 1001,4 hPa 0,2 l/m 10,7 km/h (2 Bft) W 263 0 min 0,000 mm 0,0 UV-I 0 W/m 2,7 C 0,0 C 14,5 km/h (3 Bft) 100,00 %
28.02.2017 21:32 3,6 C 94 % 1001,4 hPa 0,0 l/m 16,9 km/h (3 Bft) W 262 0 min 0,000 mm 0,0 UV-I 0 W/m 2,7 C -3,6 C 22,5 km/h (4 Bft) 100,00 %
28.02.2017 21:34 3,6 C 94 % 1001,4 hPa 0,0 l/m 18,7 km/h (3 Bft) W-SW 257 0 min 0,000 mm 0,0 UV-I 0 W/m 2,7 C -4,4 C 25,7 km/h (4 Bft) 100,00 %
28.02.2017 21:36 3,6 C 94 % 1001,5 hPa 0,0 l/m 16,6 km/h (3 Bft) W 266 0 min 0,000 mm 0,0 UV-I 0 W/m 2,7 C -3,4 C 20,9 km/h (4 Bft) 100,00 %
28.02.2017 21:38 3,6 C 94 % 1001,5 hPa 0,0 l/m 16,2 km/h (3 Bft) W-SW 244 0 min 0,000 mm 0,0 UV-I 0 W/m 2,7 C -3,2 C 27,4 km/h (4 Bft) 93,62 %
28.02.2017 21:40 3,6 C 94 % 1001,5 hPa 0,0 l/m 19,5 km/h (3 Bft) W-SW 245 0 min 0,000 mm 0,0 UV-I 0 W/m 2,7 C -4,8 C 27,4 km/h (4 Bft) 97,87 %
28.02.2017 21:42 3,6 C 94 % 1001,6 hPa 0,0 l/m 20,1 km/h (4 Bft) W-SW 243 0 min 0,000 mm 0,0 UV-I 0 W/m 2,7 C -5,0 C 27,4 km/h (4 Bft) 94,00 %
28.02.2017 21:44 3,6 C 94 % 1001,7 hPa 0,0 l/m 19,9 km/h (4 Bft) SW 229 0 min 0,000 mm 0,0 UV-I 0 W/m 2,7 C -4,9 C 29,0 km/h (5 Bft) 93,62 %
28.02.2017 21:46 3,6 C 94 % 1001,8 hPa 0,0 l/m 14,9 km/h (3 Bft) W 278 0 min 0,000 mm 0,0 UV-I 0 W/m 2,7 C -2,6 C 20,9 km/h (4 Bft) 95,74 %
28.02.2017 21:48 3,6 C 94 % 1001,9 hPa 0,0 l/m 18,0 km/h (3 Bft) W-SW 244 0 min 0,000 mm 0,0 UV-I 0 W/m 2,7 C -4,1 C 25,7 km/h (4 Bft) 97,37 %
28.02.2017 21:50 3,6 C 94 % 1001,9 hPa 0,0 l/m 22,8 km/h (4 Bft) SW 217 0 min 0,000 mm 0,0 UV-I 0 W/m 2,7 C -6,1 C 38,6 km/h (5 Bft) 96,00 %
28.02.2017 21:52 3,6 C 94 % 1001,9 hPa 0,0 l/m 18,1 km/h (3 Bft) S-SW 202 0 min 0,000 mm 0,0 UV-I 0 W/m 2,7 C -4,2 C 30,6 km/h (5 Bft) 96,00 %
28.02.2017 21:54 3,4 C 93 % 1001,8 hPa 0,0 l/m 17,8 km/h (3 Bft) SW 214 0 min 0,000 mm 0,0 UV-I 0 W/m 2,4 C -4,3 C 29,0 km/h (5 Bft) 93,62 %
28.02.2017 21:56 3,4 C 93 % 1001,7 hPa 0,0 l/m 15,7 km/h (3 Bft) S 175 0 min 0,000 mm 0,0 UV-I 0 W/m 2,4 C -3,2 C 27,4 km/h (4 Bft) 97,44 %
28.02.2017 21:58 3,3 C 93 % 1001,8 hPa 0,0 l/m 13,3 km/h (3 Bft) S-SW 209 0 min 0,000 mm 0,0 UV-I 0 W/m 2,3 C -2,0 C 19,3 km/h (3 Bft) 96,00 %
28.02.2017 22:00 3,2 C 93 % 1001,8 hPa 0,0 l/m 10,4 km/h (2 Bft) S-SW 210 0 min 0,000 mm 0,0 UV-I 0 W/m 2,2 C -0,2 C 14,5 km/h (3 Bft) 97,87 %
28.02.2017 22:02 3,2 C 93 % 1001,8 hPa 0,0 l/m 13,7 km/h (3 Bft) SW 226 0 min 0,000 mm 0,0 UV-I 0 W/m 2,2 C -2,4 C 27,4 km/h (4 Bft) 95,74 %
28.02.2017 22:04 3,1 C 93 % 1001,7 hPa 0,0 l/m 12,0 km/h (2 Bft) SW 216 0 min 0,000 mm 0,0 UV-I 0 W/m 2,1 C -1,4 C 19,3 km/h (3 Bft) 93,62 %
28.02.2017 22:06 3,0 C 93 % 1001,7 hPa 0,0 l/m 13,5 km/h (3 Bft) SW 215 0 min 0,000 mm 0,0 UV-I 0 W/m 2,0 C -2,5 C 24,1 km/h (4 Bft) 96,00 %
28.02.2017 22:08 3,0 C 93 % 1001,7 hPa 0,0 l/m 17,9 km/h (3 Bft) SW 226 0 min 0,000 mm 0,0 UV-I 0 W/m 2,0 C -4,8 C 27,4 km/h (4 Bft) 97,87 %
28.02.2017 22:10 3,0 C 93 % 1001,7 hPa 0,0 l/m 19,2 km/h (3 Bft) S-SW 211 0 min 0,000 mm 0,0 UV-I 0 W/m 2,0 C -5,4 C 29,0 km/h (5 Bft) 95,74 %
28.02.2017 22:12 3,0 C 93 % 1001,7 hPa 0,0 l/m 17,4 km/h (3 Bft) S-SW 209 0 min 0,000 mm 0,0 UV-I 0 W/m 2,0 C -4,6 C 30,6 km/h (5 Bft) 97,87 %
28.02.2017 22:14 3,0 C 93 % 1001,7 hPa 0,0 l/m 16,4 km/h (3 Bft) SW 215 0 min 0,000 mm 0,0 UV-I 0 W/m 2,0 C -4,1 C 25,7 km/h (4 Bft) 98,00 %
28.02.2017 22:16 3,1 C 93 % 1001,7 hPa 0,0 l/m 18,7 km/h (3 Bft) SW 223 0 min 0,000 mm 0,0 UV-I 0 W/m 2,1 C -5,1 C 25,7 km/h (4 Bft) 100,00 %
28.02.2017 22:18 3,1 C 93 % 1001,7 hPa 0,0 l/m 17,5 km/h (3 Bft) S-SW 203 0 min 0,000 mm 0,0 UV-I 0 W/m 2,1 C -4,5 C 27,4 km/h (4 Bft) 91,49 %
28.02.2017 22:20 3,1 C 93 % 1001,7 hPa 0,0 l/m 14,7 km/h (3 Bft) SW 220 0 min 0,000 mm 0,0 UV-I 0 W/m 2,1 C -3,1 C 24,1 km/h (4 Bft) 100,00 %
28.02.2017 22:22 3,1 C 92 % 1001,7 hPa 0,0 l/m 19,8 km/h (3 Bft) S-SW 199 0 min 0,000 mm 0,0 UV-I 0 W/m 1,9 C -5,5 C 29,0 km/h (5 Bft) 100,00 %
28.02.2017 22:24 3,1 C 92 % 1001,7 hPa 0,0 l/m 18,1 km/h (3 Bft) S-SW 207 0 min 0,000 mm 0,0 UV-I 0 W/m 1,9 C -4,8 C 24,1 km/h (4 Bft) 95,74 %
28.02.2017 22:26 3,2 C 92 % 1001,8 hPa 0,0 l/m 15,4 km/h (3 Bft) SW 215 0 min 0,000 mm 0,0 UV-I 0 W/m 2,0 C -3,3 C 29,0 km/h (5 Bft) 100,00 %
28.02.2017 22:28 3,2 C 92 % 1001,8 hPa 0,0 l/m 14,7 km/h (3 Bft) S-SW 211 0 min 0,000 mm 0,0 UV-I 0 W/m 2,0 C -2,9 C 25,7 km/h (4 Bft) 100,00 %
28.02.2017 22:30 3,3 C 92 % 1001,9 hPa 0,0 l/m 16,8 km/h (3 Bft) S-SW 209 0 min 0,000 mm 0,0 UV-I 0 W/m 2,1 C -3,9 C 27,4 km/h (4 Bft) 97,87 %
28.02.2017 22:32 3,3 C 92 % 1002,0 hPa 0,0 l/m 15,3 km/h (3 Bft) SW 219 0 min 0,000 mm 0,0 UV-I 0 W/m 2,1 C -3,1 C 27,4 km/h (4 Bft) 100,00 %
28.02.2017 22:34 3,3 C 92 % 1002,0 hPa 0,0 l/m 19,2 km/h (3 Bft) S-SW 205 0 min 0,000 mm 0,0 UV-I 0 W/m 2,1 C -5,0 C 29,0 km/h (5 Bft) 100,00 %
28.02.2017 22:36 3,4 C 91 % 1002,0 hPa 0,0 l/m 19,9 km/h (4 Bft) SW 214 0 min 0,000 mm 0,0 UV-I 0 W/m 2,1 C -5,2 C 30,6 km/h (5 Bft) 93,62 %
28.02.2017 22:38 3,4 C 91 % 1002,1 hPa 0,0 l/m 20,0 km/h (4 Bft) S-SW 211 0 min 0,000 mm 0,0 UV-I 0 W/m 2,1 C -5,2 C 29,0 km/h (5 Bft) 96,00 %
28.02.2017 22:40 3,4 C 91 % 1002,1 hPa 0,0 l/m 18,8 km/h (3 Bft) S-SW 201 0 min 0,000 mm 0,0 UV-I 0 W/m 2,1 C -4,7 C 30,6 km/h (5 Bft) 97,44 %
28.02.2017 22:42 3,5 C 91 % 1002,0 hPa 0,0 l/m 22,1 km/h (4 Bft) S-SW 207 0 min 0,000 mm 0,0 UV-I 0 W/m 2,2 C -5,9 C 32,2 km/h (5 Bft) 97,87 %
28.02.2017 22:44 3,6 C 91 % 1002,0 hPa 0,0 l/m 23,7 km/h (4 Bft) S-SW 200 0 min 0,000 mm 0,0 UV-I 0 W/m 2,3 C -6,4 C 35,4 km/h (5 Bft) 97,87 %
28.02.2017 22:46 3,6 C 90 % 1001,9 hPa 0,0 l/m 17,4 km/h (3 Bft) S-SW 213 0 min 0,000 mm 0,0 UV-I 0 W/m 2,1 C -3,8 C 32,2 km/h (5 Bft) 100,00 %
28.02.2017 22:48 3,6 C 90 % 1001,9 hPa 0,0 l/m 21,1 km/h (4 Bft) S-SW 206 0 min 0,000 mm 0,0 UV-I 0 W/m 2,1 C -5,4 C 27,4 km/h (4 Bft) 97,87 %
28.02.2017 22:50 3,7 C 90 % 1001,9 hPa 0,0 l/m 17,7 km/h (3 Bft) SW 231 0 min 0,000 mm 0,0 UV-I 0 W/m 2,2 C -3,8 C 25,7 km/h (4 Bft) 100,00 %
28.02.2017 22:52 3,7 C 90 % 1001,9 hPa 0,0 l/m 15,5 km/h (3 Bft) S 184 0 min 0,000 mm 0,0 UV-I 0 W/m 2,2 C -2,8 C 25,7 km/h (4 Bft) 97,87 %
28.02.2017 22:54 3,7 C 90 % 1001,9 hPa 0,0 l/m 22,7 km/h (4 Bft) S-SW 194 0 min 0,000 mm 0,0 UV-I 0 W/m 2,2 C -5,9 C 43,5 km/h (6 Bft) 97,87 %
28.02.2017 22:56 3,8 C 90 % 1002,0 hPa 0,0 l/m 22,6 km/h (4 Bft) SW 223 0 min 0,000 mm 0,0 UV-I 0 W/m 2,3 C -5,7 C 30,6 km/h (5 Bft) 100,00 %
28.02.2017 22:58 3,8 C 90 % 1002,0 hPa 0,0 l/m 15,7 km/h (3 Bft) S-SW 211 0 min 0,000 mm 0,0 UV-I 0 W/m 2,3 C -2,7 C 25,7 km/h (4 Bft) 97,37 %
28.02.2017 23:00 3,8 C 90 % 1002,0 hPa 0,0 l/m 17,0 km/h (3 Bft) S-SW 198 0 min 0,000 mm 0,0 UV-I 0 W/m 2,3 C -3,4 C 25,7 km/h (4 Bft) 97,87 %
28.02.2017 23:02 3,9 C 89 % 1002,0 hPa 0,0 l/m 18,5 km/h (3 Bft) S-SW 209 0 min 0,025 mm 0,0 UV-I 0 W/m 2,3 C -4,0 C 25,7 km/h (4 Bft) 97,87 %
28.02.2017 23:04 3,9 C 89 % 1002,1 hPa 0,0 l/m 18,6 km/h (3 Bft) S-SW 201 0 min 0,000 mm 0,0 UV-I 0 W/m 2,3 C -4,0 C 27,4 km/h (4 Bft) 97,87 %
28.02.2017 23:06 3,9 C 89 % 1002,0 hPa 0,0 l/m 16,1 km/h (3 Bft) SW 225 0 min 0,000 mm 0,0 UV-I 0 W/m 2,3 C -2,8 C 25,7 km/h (4 Bft) 97,87 %
28.02.2017 23:08 3,9 C 89 % 1002,1 hPa 0,0 l/m 17,0 km/h (3 Bft) S 190 0 min 0,000 mm 0,0 UV-I 0 W/m 2,3 C -3,3 C 25,7 km/h (4 Bft) 97,87 %
28.02.2017 23:10 3,9 C 89 % 1002,1 hPa 0,0 l/m 21,4 km/h (4 Bft) S-SW 205 0 min 0,000 mm 0,0 UV-I 0 W/m 2,3 C -5,2 C 38,6 km/h (5 Bft) 98,00 %
28.02.2017 23:12 4,0 C 89 % 1002,1 hPa 0,0 l/m 19,2 km/h (3 Bft) S-SW 205 0 min 0,000 mm 0,0 UV-I 0 W/m 2,4 C -4,1 C 29,0 km/h (5 Bft) 97,87 %
28.02.2017 23:14 4,1 C 89 % 1002,1 hPa 0,0 l/m 19,2 km/h (3 Bft) S-SW 192 0 min 0,000 mm 0,0 UV-I 0 W/m 2,5 C -4,0 C 29,0 km/h (5 Bft) 95,74 %
28.02.2017 23:16 4,1 C 89 % 1002,1 hPa 0,0 l/m 14,4 km/h (3 Bft) W-SW 237 0 min 0,000 mm 0,0 UV-I 0 W/m 2,5 C -1,7 C 27,4 km/h (4 Bft) 100,00 %
28.02.2017 23:18 4,1 C 89 % 1002,1 hPa 0,0 l/m 21,1 km/h (4 Bft) SW 234 0 min 0,000 mm 0,0 UV-I 0 W/m 2,5 C -4,8 C 41,8 km/h (6 Bft) 100,00 %
28.02.2017 23:20 4,1 C 88 % 1002,2 hPa 0,0 l/m 18,9 km/h (3 Bft) SW 220 0 min 0,000 mm 0,0 UV-I 0 W/m 2,3 C -3,9 C 29,0 km/h (5 Bft) 100,00 %
28.02.2017 23:22 4,2 C 88 % 1002,2 hPa 0,0 l/m 15,2 km/h (3 Bft) SW 231 0 min 0,000 mm 0,0 UV-I 0 W/m 2,4 C -2,0 C 37,0 km/h (5 Bft) 97,87 %
28.02.2017 23:24 4,2 C 88 % 1002,3 hPa 0,0 l/m 16,4 km/h (3 Bft) SW 229 0 min 0,000 mm 0,0 UV-I 0 W/m 2,4 C -2,6 C 25,7 km/h (4 Bft) 95,74 %
28.02.2017 23:26 4,2 C 88 % 1002,3 hPa 0,0 l/m 21,5 km/h (4 Bft) S-SW 212 0 min 0,000 mm 0,0 UV-I 0 W/m 2,4 C -4,8 C 29,0 km/h (5 Bft) 96,00 %
28.02.2017 23:28 4,2 C 88 % 1002,4 hPa 0,0 l/m 12,7 km/h (3 Bft) S-SW 207 0 min 0,000 mm 0,0 UV-I 0 W/m 2,4 C -0,6 C 25,7 km/h (4 Bft) 100,00 %
28.02.2017 23:30 4,2 C 88 % 1002,4 hPa 0,0 l/m 15,5 km/h (3 Bft) SW 219 0 min 0,000 mm 0,0 UV-I 0 W/m 2,4 C -2,2 C 27,4 km/h (4 Bft) 97,87 %
28.02.2017 23:32 4,2 C 87 % 1002,4 hPa 0,0 l/m 21,0 km/h (4 Bft) S-SW 211 0 min 0,000 mm 0,0 UV-I 0 W/m 2,2 C -4,6 C 33,8 km/h (5 Bft) 97,87 %
28.02.2017 23:34 4,3 C 87 % 1002,4 hPa 0,0 l/m 20,1 km/h (4 Bft) SW 226 0 min 0,000 mm 0,0 UV-I 0 W/m 2,3 C -4,1 C 32,2 km/h (5 Bft) 98,00 %
28.02.2017 23:36 4,3 C 87 % 1002,4 hPa 0,0 l/m 17,6 km/h (3 Bft) SW 236 0 min 0,000 mm 0,0 UV-I 0 W/m 2,3 C -3,0 C 27,4 km/h (4 Bft) 100,00 %
28.02.2017 23:38 4,3 C 87 % 1002,4 hPa 0,0 l/m 14,9 km/h (3 Bft) SW 219 0 min 0,000 mm 0,0 UV-I 0 W/m 2,3 C -1,7 C 27,4 km/h (4 Bft) 100,00 %
28.02.2017 23:40 4,3 C 87 % 1002,5 hPa 0,0 l/m 19,9 km/h (4 Bft) S-SW 200 0 min 0,000 mm 0,0 UV-I 0 W/m 2,3 C -4,0 C 33,8 km/h (5 Bft) 100,00 %
28.02.2017 23:42 4,3 C 87 % 1002,5 hPa 0,0 l/m 22,6 km/h (4 Bft) W-SW 240 0 min 0,000 mm 0,0 UV-I 0 W/m 2,3 C -5,1 C 40,2 km/h (6 Bft) 100,00 %
28.02.2017 23:44 4,4 C 87 % 1002,6 hPa 0,0 l/m 18,7 km/h (3 Bft) SW 218 0 min 0,000 mm 0,0 UV-I 0 W/m 2,4 C -3,4 C 29,0 km/h (5 Bft) 98,00 %
28.02.2017 23:46 4,4 C 86 % 1002,5 hPa 0,0 l/m 22,2 km/h (4 Bft) W-SW 241 0 min 0,000 mm 0,0 UV-I 0 W/m 2,3 C -4,8 C 29,0 km/h (5 Bft) 100,00 %
28.02.2017 23:48 4,4 C 87 % 1002,5 hPa 0,0 l/m 15,1 km/h (3 Bft) W-SW 252 0 min 0,000 mm 0,0 UV-I 0 W/m 2,4 C -1,7 C 24,1 km/h (4 Bft) 97,87 %
28.02.2017 23:50 4,4 C 86 % 1002,3 hPa 0,0 l/m 17,1 km/h (3 Bft) W-SW 244 0 min 0,000 mm 0,0 UV-I 0 W/m 2,3 C -2,7 C 29,0 km/h (5 Bft) 97,87 %
28.02.2017 23:52 4,4 C 86 % 1002,4 hPa 0,0 l/m 20,9 km/h (4 Bft) SW 233 0 min 0,000 mm 0,0 UV-I 0 W/m 2,3 C -4,3 C 29,0 km/h (5 Bft) 95,74 %
28.02.2017 23:54 4,4 C 87 % 1002,2 hPa 0,0 l/m 16,7 km/h (3 Bft) SW 227 0 min 0,000 mm 0,0 UV-I 0 W/m 2,4 C -2,5 C 27,4 km/h (4 Bft) 97,44 %
28.02.2017 23:56 4,4 C 86 % 1002,1 hPa 0,0 l/m 18,9 km/h (3 Bft) S-SW 200 0 min 0,000 mm 0,0 UV-I 0 W/m 2,3 C -3,5 C 24,1 km/h (4 Bft) 97,96 %
28.02.2017 23:58 4,4 C 86 % 1002,1 hPa 0,0 l/m 16,1 km/h (3 Bft) SW 236 0 min 0,000 mm 0,0 UV-I 0 W/m 2,3 C -2,2 C 25,7 km/h (4 Bft) 95,74 %
_ Min-Zeit 06:54 14:50 19:42 - 00:12 - - - - - - 06:54 08:06 00:16 19:30
Minimum _ -1,3 C 72 % 995,4 hPa - 0,0 km/h (0 Bft) - - - - - - -2,0 C -9,0 C 0,0 km/h (0 Bft) 85,11 %
_ Max-Zeit 14:50 07:24 10:12 08:10 09:04 - - 06:58 12:00 11:48 11:50 20:58 12:50 09:16 00:14
Maximum _ 6,8 C 97 % 1004,7 hPa 0,2 l/m 27,4 km/h
W-SW (4 Bft)
- - 2 min 0,102 mm 1,1 UV-I 287 W/m 3,5 C 6,7 C 53,1 km/h
W (7 Bft)
100,00 %
Durchschnitt _ 3,4 C 87 % 1000,2 hPa #3,4 l/m 8,4 km/h (2 Bft) S - #52 min. #0,711 mm 0,6 UV-I 106 W/m 1,4 C 0,8 C 13,4 km/h (3 Bft) 96,53 %